Time,TemperatureF,DewpointF,PressureIn,WindDirection,WindDirectionDegrees,WindSpeedMPH,WindSpeedGustMPH,Humidity,HourlyPrecipIn,Conditions,Clouds,dailyrainin,SoftwareType,DateUTC
2013-10-13 00:01:00,58.2,56.5,30.07,NE,56,0.0,0.0,94,0.00,,,0.02,Wunderground v.1.15,2013-10-13 04:01:00,
2013-10-13 00:07:00,58.0,56.3,30.07,NE,56,0.0,0.0,94,0.00,,,0.00,Wunderground v.1.15,2013-10-13 04:07:00,
2013-10-13 00:08:00,57.9,56.2,30.07,ENE,57,0.0,0.0,94,0.00,,,0.00,Wunderground v.1.15,2013-10-13 04:08:00,
2013-10-13 00:09:00,57.9,56.2,30.07,ENE,57,0.0,0.0,94,0.00,,,0.00,Wunderground v.1.15,2013-10-13 04:09:00,
2013-10-13 00:12:00,57.8,56.4,30.07,ENE,57,0.0,0.0,95,0.00,,,0.00,Wunderground v.1.15,2013-10-13 04:12:00,
2013-10-13 00:14:00,57.7,56.3,30.07,NE,56,0.0,0.0,95,0.00,,,0.00,Wunderground v.1.15,2013-10-13 04:14:00,
2013-10-13 00:15:00,57.7,56.0,30.07,ENE,57,0.0,0.0,94,0.00,,,0.00,Wunderground v.1.15,2013-10-13 04:15:00,
2013-10-13 00:20:00,57.5,56.1,30.07,ENE,57,0.0,0.0,95,0.00,,,0.00,Wunderground v.1.15,2013-10-13 04:20:00,
2013-10-13 00:21:00,57.5,56.1,30.08,ENE,57,0.0,0.0,95,0.00,,,0.00,Wunderground v.1.15,2013-10-13 04:21:00,
2013-10-13 00:22:00,57.5,56.1,30.07,ENE,57,0.0,0.0,95,0.00,,,0.00,Wunderground v.1.15,2013-10-13 04:22:00,
2013-10-13 00:23:00,57.4,56.0,30.07,NE,56,0.0,0.0,95,0.00,,,0.00,Wunderground v.1.15,2013-10-13 04:23:00,
2013-10-13 00:26:00,57.4,56.0,30.08,ENE,57,0.0,0.0,95,0.00,,,0.00,Wunderground v.1.15,2013-10-13 04:26:00,
2013-10-13 00:28:00,57.3,55.9,30.08,ENE,57,0.0,0.0,95,0.00,,,0.00,Wunderground v.1.15,2013-10-13 04:28:00,
2013-10-13 00:29:00,57.3,55.9,30.08,ENE,57,0.0,0.0,95,0.00,,,0.00,Wunderground v.1.15,2013-10-13 04:29:00,
2013-10-13 00:30:00,57.2,55.8,30.08,ENE,57,0.0,0.0,95,0.00,,,0.00,Wunderground v.1.15,2013-10-13 04:30:00,
2013-10-13 00:32:00,57.2,55.8,30.08,ENE,57,0.0,0.0,95,0.00,,,0.00,Wunderground v.1.15,2013-10-13 04:32:00,
2013-10-13 00:35:00,57.2,55.8,30.08,NE,56,0.0,0.0,95,0.00,,,0.00,Wunderground v.1.15,2013-10-13 04:35:00,
2013-10-13 00:37:00,57.2,55.8,30.07,ENE,57,0.0,0.0,95,0.00,,,0.00,Wunderground v.1.15,2013-10-13 04:37:00,
2013-10-13 00:38:00,57.1,55.7,30.07,ENE,57,0.0,0.0,95,0.00,,,0.00,Wunderground v.1.15,2013-10-13 04:38:00,
2013-10-13 00:39:00,57.1,55.7,30.07,NE,56,0.0,0.0,95,0.00,,,0.00,Wunderground v.1.15,2013-10-13 04:39:00,
2013-10-13 00:40:00,57.1,55.7,30.07,NE,56,0.0,0.0,95,0.00,,,0.00,Wunderground v.1.15,2013-10-13 04:40:00,
2013-10-13 00:41:00,57.0,55.6,30.07,ENE,57,0.0,0.0,95,0.00,,,0.00,Wunderground v.1.15,2013-10-13 04:41:00,
2013-10-13 00:45:00,56.9,55.5,30.07,ENE,57,0.0,0.0,95,0.00,,,0.00,Wunderground v.1.15,2013-10-13 04:45:00,
2013-10-13 00:47:00,56.8,55.4,30.07,ENE,57,0.0,0.0,95,0.00,,,0.00,Wunderground v.1.15,2013-10-13 04:47:00,
2013-10-13 00:48:00,56.7,55.3,30.07,ENE,57,0.0,0.0,95,0.00,,,0.00,Wunderground v.1.15,2013-10-13 04:48:00,
2013-10-13 00:49:00,56.7,55.3,30.07,ENE,57,0.0,0.0,95,0.00,,,0.00,Wunderground v.1.15,2013-10-13 04:49:00,
2013-10-13 00:50:00,56.7,55.3,30.07,ENE,57,0.0,0.0,95,0.00,,,0.00,Wunderground v.1.15,2013-10-13 04:50:00,
2013-10-13 00:52:00,56.7,55.3,30.07,ENE,57,0.0,0.0,95,0.00,,,0.00,Wunderground v.1.15,2013-10-13 04:52:00,
2013-10-13 00:53:00,56.7,55.6,30.07,NE,56,1.0,1.0,96,0.00,,,0.00,Wunderground v.1.15,2013-10-13 04:53:00,
2013-10-13 00:55:00,56.7,55.6,30.07,NE,56,0.0,1.0,96,0.00,,,0.00,Wunderground v.1.15,2013-10-13 04:55:00,
2013-10-13 00:56:00,56.7,55.6,30.07,ENE,57,0.0,1.0,96,0.00,,,0.00,Wunderground v.1.15,2013-10-13 04:56:00,
2013-10-13 00:59:00,56.7,55.6,30.07,NE,56,0.0,1.0,96,0.00,,,0.00,Wunderground v.1.15,2013-10-13 04:59:00,
2013-10-13 01:01:00,56.7,55.6,30.07,ENE,57,0.0,0.0,96,0.00,,,0.00,Wunderground v.1.15,2013-10-13 05:01:00,
2013-10-13 01:04:00,56.7,55.6,30.07,ENE,57,0.0,0.0,96,0.00,,,0.00,Wunderground v.1.15,2013-10-13 05:04:00,
2013-10-13 01:06:00,56.7,55.6,30.08,NE,56,0.0,0.0,96,0.00,,,0.00,Wunderground v.1.15,2013-10-13 05:06:00,
2013-10-13 01:07:00,56.6,55.5,30.07,ENE,57,0.0,0.0,96,0.00,,,0.00,Wunderground v.1.15,2013-10-13 05:07:00,
2013-10-13 01:08:00,56.6,55.2,30.07,ENE,57,0.0,0.0,95,0.00,,,0.00,Wunderground v.1.15,2013-10-13 05:08:00,
2013-10-13 01:09:00,56.5,55.1,30.07,ENE,57,0.0,0.0,95,0.00,,,0.00,Wunderground v.1.15,2013-10-13 05:09:00,
2013-10-13 01:10:00,56.4,55.0,30.07,NE,56,0.0,0.0,95,0.00,,,0.00,Wunderground v.1.15,2013-10-13 05:10:00,
2013-10-13 01:13:00,56.3,54.9,30.07,NE,56,0.0,0.0,95,0.00,,,0.00,Wunderground v.1.15,2013-10-13 05:13:00,
2013-10-13 01:16:00,56.2,54.8,30.07,NE,56,0.0,0.0,95,0.00,,,0.00,Wunderground v.1.15,2013-10-13 05:16:00,
2013-10-13 01:17:00,56.2,55.1,30.07,NE,56,0.0,0.0,96,0.00,,,0.00,Wunderground v.1.15,2013-10-13 05:17:00,
2013-10-13 01:19:00,56.1,54.7,30.06,ENE,57,0.0,0.0,95,0.00,,,0.00,Wunderground v.1.15,2013-10-13 05:19:00,
2013-10-13 01:20:00,56.1,54.7,30.06,ENE,57,0.0,0.0,95,0.00,,,0.00,Wunderground v.1.15,2013-10-13 05:20:00,
2013-10-13 01:22:00,55.9,54.5,30.06,ENE,57,0.0,0.0,95,0.00,,,0.00,Wunderground v.1.15,2013-10-13 05:22:00,
2013-10-13 01:23:00,55.9,54.5,30.06,ENE,57,1.0,1.0,95,0.00,,,0.00,Wunderground v.1.15,2013-10-13 05:23:00,
2013-10-13 01:24:00,55.8,54.4,30.06,ENE,57,1.0,1.0,95,0.00,,,0.00,Wunderground v.1.15,2013-10-13 05:24:00,
2013-10-13 01:25:00,55.8,54.4,30.06,ENE,57,1.0,1.0,95,0.00,,,0.00,Wunderground v.1.15,2013-10-13 05:25:00,
2013-10-13 01:29:00,56.0,54.9,30.07,ENE,57,1.0,2.0,96,0.00,,,0.00,Wunderground v.1.15,2013-10-13 05:29:00,
2013-10-13 01:31:00,56.1,55.0,30.07,ENE,57,1.0,1.0,96,0.00,,,0.00,Wunderground v.1.15,2013-10-13 05:31:00,
2013-10-13 01:32:00,56.1,55.3,30.07,ENE,57,0.0,1.0,97,0.00,,,0.00,Wunderground v.1.15,2013-10-13 05:32:00,
2013-10-13 01:34:00,56.2,55.4,30.07,ENE,57,1.0,1.0,97,0.00,,,0.00,Wunderground v.1.15,2013-10-13 05:34:00,
2013-10-13 01:35:00,56.2,55.4,30.07,ENE,57,1.0,1.0,97,0.00,,,0.00,Wunderground v.1.15,2013-10-13 05:35:00,
2013-10-13 01:36:00,56.3,55.5,30.07,ENE,57,0.0,1.0,97,0.00,,,0.00,Wunderground v.1.15,2013-10-13 05:36:00,
2013-10-13 01:40:00,56.3,55.5,30.08,NE,56,0.0,1.0,97,0.00,,,0.00,Wunderground v.1.15,2013-10-13 05:40:00,
2013-10-13 01:41:00,56.3,55.5,30.08,ENE,57,0.0,1.0,97,0.00,,,0.00,Wunderground v.1.15,2013-10-13 05:41:00,
2013-10-13 01:43:00,56.4,55.6,30.08,ENE,57,0.0,1.0,97,0.00,,,0.00,Wunderground v.1.15,2013-10-13 05:43:00,
2013-10-13 01:45:00,56.3,55.2,30.08,NE,56,0.0,1.0,96,0.00,,,0.00,Wunderground v.1.15,2013-10-13 05:45:00,
2013-10-13 01:46:00,56.3,55.2,30.08,ENE,57,0.0,1.0,96,0.00,,,0.00,Wunderground v.1.15,2013-10-13 05:46:00,
2013-10-13 01:48:00,56.2,55.1,30.08,ENE,57,0.0,1.0,96,0.00,,,0.00,Wunderground v.1.15,2013-10-13 05:48:00,
2013-10-13 01:49:00,56.2,55.1,30.08,ENE,57,0.0,1.0,96,0.00,,,0.00,Wunderground v.1.15,2013-10-13 05:49:00,
2013-10-13 01:50:00,56.1,55.0,30.08,NE,56,0.0,0.0,96,0.00,,,0.00,Wunderground v.1.15,2013-10-13 05:50:00,
2013-10-13 01:52:00,56.0,54.9,30.08,ENE,57,0.0,0.0,96,0.00,,,0.00,Wunderground v.1.15,2013-10-13 05:52:00,
2013-10-13 01:55:00,55.9,54.8,30.08,ENE,57,0.0,0.0,96,0.00,,,0.00,Wunderground v.1.15,2013-10-13 05:55:00,
2013-10-13 01:57:00,55.9,54.8,30.08,ENE,57,0.0,0.0,96,0.00,,,0.00,Wunderground v.1.15,2013-10-13 05:57:00,
2013-10-13 01:59:00,55.8,54.7,30.08,ENE,57,0.0,0.0,96,0.00,,,0.00,Wunderground v.1.15,2013-10-13 05:59:00,
2013-10-13 02:01:00,55.7,54.6,30.08,NE,56,0.0,0.0,96,0.00,,,0.00,Wunderground v.1.15,2013-10-13 06:01:00,
2013-10-13 02:02:00,55.7,54.6,30.08,ENE,57,0.0,1.0,96,0.00,,,0.00,Wunderground v.1.15,2013-10-13 06:02:00,
2013-10-13 02:04:00,55.7,54.6,30.08,NE,56,0.0,1.0,96,0.00,,,0.00,Wunderground v.1.15,2013-10-13 06:04:00,
2013-10-13 02:06:00,55.7,54.6,30.08,ENE,57,0.0,3.0,96,0.00,,,0.00,Wunderground v.1.15,2013-10-13 06:06:00,
2013-10-13 02:07:00,55.7,54.6,30.08,NE,56,1.0,3.0,96,0.00,,,0.00,Wunderground v.1.15,2013-10-13 06:07:00,
2013-10-13 02:09:00,55.8,55.0,30.08,NE,56,1.0,3.0,97,0.00,,,0.00,Wunderground v.1.15,2013-10-13 06:09:00,
2013-10-13 02:12:00,55.8,54.7,30.08,NE,56,0.0,1.0,96,0.00,,,0.00,Wunderground v.1.15,2013-10-13 06:12:00,
2013-10-13 02:13:00,55.7,54.6,30.08,ENE,57,0.0,1.0,96,0.00,,,0.00,Wunderground v.1.15,2013-10-13 06:13:00,
2013-10-13 02:14:00,55.7,54.6,30.08,ENE,57,0.0,1.0,96,0.00,,,0.00,Wunderground v.1.15,2013-10-13 06:14:00,
2013-10-13 02:17:00,55.5,54.4,30.08,ENE,57,0.0,1.0,96,0.00,,,0.00,Wunderground v.1.15,2013-10-13 06:17:00,
2013-10-13 02:18:00,55.5,54.4,30.08,ENE,57,0.0,1.0,96,0.00,,,0.00,Wunderground v.1.15,2013-10-13 06:18:00,
2013-10-13 02:19:00,55.4,54.3,30.08,ENE,57,0.0,1.0,96,0.00,,,0.00,Wunderground v.1.15,2013-10-13 06:19:00,
2013-10-13 02:22:00,55.2,54.1,30.08,ENE,57,0.0,0.0,96,0.00,,,0.00,Wunderground v.1.15,2013-10-13 06:22:00,
2013-10-13 02:23:00,55.2,54.1,30.08,ENE,57,0.0,0.0,96,0.00,,,0.00,Wunderground v.1.15,2013-10-13 06:23:00,
2013-10-13 02:24:00,55.2,54.1,30.08,ENE,57,0.0,0.0,96,0.00,,,0.00,Wunderground v.1.15,2013-10-13 06:24:00,
2013-10-13 02:25:00,55.1,54.0,30.08,ENE,57,0.0,0.0,96,0.00,,,0.00,Wunderground v.1.15,2013-10-13 06:25:00,
2013-10-13 02:27:00,55.0,53.9,30.08,ENE,57,0.0,0.0,96,0.00,,,0.00,Wunderground v.1.15,2013-10-13 06:27:00,
2013-10-13 02:28:00,55.0,53.9,30.08,ENE,57,0.0,0.0,96,0.00,,,0.00,Wunderground v.1.15,2013-10-13 06:28:00,
2013-10-13 02:29:00,55.0,53.9,30.07,ENE,57,0.0,0.0,96,0.00,,,0.00,Wunderground v.1.15,2013-10-13 06:29:00,
2013-10-13 02:30:00,54.9,53.8,30.08,NE,56,0.0,0.0,96,0.00,,,0.00,Wunderground v.1.15,2013-10-13 06:30:00,
2013-10-13 02:32:00,54.8,53.7,30.07,NE,56,0.0,1.0,96,0.00,,,0.00,Wunderground v.1.15,2013-10-13 06:32:00,
2013-10-13 02:33:00,54.8,53.7,30.08,ENE,57,0.0,1.0,96,0.00,,,0.00,Wunderground v.1.15,2013-10-13 06:33:00,
2013-10-13 02:34:00,54.8,53.7,30.08,ENE,57,0.0,1.0,96,0.00,,,0.00,Wunderground v.1.15,2013-10-13 06:34:00,
2013-10-13 02:35:00,54.7,53.6,30.08,NE,56,0.0,1.0,96,0.00,,,0.00,Wunderground v.1.15,2013-10-13 06:35:00,
2013-10-13 02:36:00,54.7,53.6,30.08,ENE,57,0.0,2.0,96,0.00,,,0.00,Wunderground v.1.15,2013-10-13 06:36:00,
2013-10-13 02:38:00,54.8,53.7,30.08,ENE,57,2.0,2.0,96,0.00,,,0.00,Wunderground v.1.15,2013-10-13 06:38:00,
2013-10-13 02:39:00,54.8,53.7,30.08,ENE,57,0.0,2.0,96,0.00,,,0.00,Wunderground v.1.15,2013-10-13 06:39:00,
2013-10-13 02:41:00,55.0,54.2,30.08,NE,56,0.0,2.0,97,0.00,,,0.00,Wunderground v.1.15,2013-10-13 06:41:00,
2013-10-13 02:43:00,55.1,54.3,30.08,ENE,57,0.0,2.0,97,0.00,,,0.00,Wunderground v.1.15,2013-10-13 06:43:00,
2013-10-13 02:44:00,55.1,54.3,30.08,ENE,57,0.0,2.0,97,0.00,,,0.00,Wunderground v.1.15,2013-10-13 06:44:00,
2013-10-13 02:45:00,55.1,54.3,30.08,ENE,57,0.0,2.0,97,0.00,,,0.00,Wunderground v.1.15,2013-10-13 06:45:00,
2013-10-13 02:46:00,55.2,54.4,30.08,ENE,57,0.0,2.0,97,0.00,,,0.00,Wunderground v.1.15,2013-10-13 06:46:00,
2013-10-13 02:48:00,55.2,54.4,30.08,ENE,57,1.0,2.0,97,0.00,,,0.00,Wunderground v.1.15,2013-10-13 06:48:00,
2013-10-13 02:49:00,55.2,54.4,30.08,ENE,57,1.0,2.0,97,0.00,,,0.00,Wunderground v.1.15,2013-10-13 06:49:00,
2013-10-13 02:51:00,55.2,54.4,30.08,NE,56,0.0,1.0,97,0.00,,,0.00,Wunderground v.1.15,2013-10-13 06:51:00,
2013-10-13 02:54:00,55.3,54.5,30.08,ENE,57,0.0,1.0,97,0.00,,,0.00,Wunderground v.1.15,2013-10-13 06:54:00,
2013-10-13 02:55:00,55.2,54.4,30.08,NE,56,0.0,1.0,97,0.00,,,0.00,Wunderground v.1.15,2013-10-13 06:55:00,
2013-10-13 02:56:00,55.2,54.4,30.08,ENE,57,0.0,1.0,97,0.00,,,0.00,Wunderground v.1.15,2013-10-13 06:56:00,
2013-10-13 02:57:00,55.2,54.4,30.08,ENE,57,0.0,1.0,97,0.00,,,0.00,Wunderground v.1.15,2013-10-13 06:57:00,
2013-10-13 02:59:00,55.2,54.4,30.08,NE,56,0.0,1.0,97,0.00,,,0.00,Wunderground v.1.15,2013-10-13 06:59:00,
2013-10-13 03:00:00,55.3,54.5,30.08,NE,56,0.0,0.0,97,0.00,,,0.00,Wunderground v.1.15,2013-10-13 07:00:00,
2013-10-13 03:01:00,55.3,54.5,30.08,NE,56,0.0,1.0,97,0.00,,,0.00,Wunderground v.1.15,2013-10-13 07:01:00,
2013-10-13 03:02:00,55.3,54.5,30.08,ENE,57,0.0,1.0,97,0.00,,,0.00,Wunderground v.1.15,2013-10-13 07:02:00,
2013-10-13 03:03:00,55.3,54.5,30.08,NE,56,0.0,1.0,97,0.00,,,0.00,Wunderground v.1.15,2013-10-13 07:03:00,
2013-10-13 03:04:00,55.3,54.5,30.08,ENE,57,0.0,1.0,97,0.00,,,0.00,Wunderground v.1.15,2013-10-13 07:04:00,
2013-10-13 03:05:00,55.3,54.5,30.08,NE,56,0.0,1.0,97,0.00,,,0.00,Wunderground v.1.15,2013-10-13 07:05:00,
2013-10-13 03:06:00,55.3,54.5,30.08,ENE,57,0.0,1.0,97,0.00,,,0.00,Wunderground v.1.15,2013-10-13 07:06:00,
2013-10-13 03:07:00,55.3,54.5,30.08,NE,56,0.0,1.0,97,0.00,,,0.00,Wunderground v.1.15,2013-10-13 07:07:00,
2013-10-13 03:08:00,55.3,54.5,30.08,ENE,57,0.0,1.0,97,0.00,,,0.00,Wunderground v.1.15,2013-10-13 07:08:00,
2013-10-13 03:10:00,55.2,54.4,30.08,ENE,57,0.0,1.0,97,0.00,,,0.00,Wunderground v.1.15,2013-10-13 07:10:00,
2013-10-13 03:13:00,55.0,53.9,30.08,NE,56,0.0,0.0,96,0.00,,,0.00,Wunderground v.1.15,2013-10-13 07:13:00,
2013-10-13 03:14:00,54.9,53.8,30.08,ENE,57,0.0,0.0,96,0.00,,,0.00,Wunderground v.1.15,2013-10-13 07:14:00,
2013-10-13 03:15:00,54.8,53.7,30.08,ENE,57,0.0,0.0,96,0.00,,,0.00,Wunderground v.1.15,2013-10-13 07:15:00,
2013-10-13 03:18:00,54.6,53.5,30.08,ENE,57,0.0,0.0,96,0.00,,,0.00,Wunderground v.1.15,2013-10-13 07:18:00,
2013-10-13 03:19:00,54.6,53.5,30.08,ENE,57,0.0,0.0,96,0.00,,,0.00,Wunderground v.1.15,2013-10-13 07:19:00,
2013-10-13 03:20:00,54.5,53.4,30.08,ENE,57,0.0,0.0,96,0.00,,,0.00,Wunderground v.1.15,2013-10-13 07:20:00,
2013-10-13 03:21:00,54.4,53.3,30.08,ENE,57,0.0,0.0,96,0.00,,,0.00,Wunderground v.1.15,2013-10-13 07:21:00,
2013-10-13 03:23:00,54.2,53.1,30.09,ENE,57,0.0,0.0,96,0.00,,,0.00,Wunderground v.1.15,2013-10-13 07:23:00,
2013-10-13 03:24:00,54.2,53.1,30.09,ENE,57,0.0,0.0,96,0.00,,,0.00,Wunderground v.1.15,2013-10-13 07:24:00,
2013-10-13 03:25:00,54.2,53.1,30.08,ENE,57,0.0,0.0,96,0.00,,,0.00,Wunderground v.1.15,2013-10-13 07:25:00,
2013-10-13 03:26:00,54.1,53.0,30.08,ENE,57,2.0,2.0,96,0.00,,,0.00,Wunderground v.1.15,2013-10-13 07:26:00,
2013-10-13 03:29:00,54.1,53.0,30.08,ENE,57,1.0,2.0,96,0.00,,,0.00,Wunderground v.1.15,2013-10-13 07:29:00,
2013-10-13 03:30:00,54.1,53.0,30.08,NE,56,1.0,1.0,96,0.00,,,0.00,Wunderground v.1.15,2013-10-13 07:30:00,
2013-10-13 03:31:00,54.2,53.4,30.08,ENE,57,0.0,2.0,97,0.00,,,0.00,Wunderground v.1.15,2013-10-13 07:31:00,
2013-10-13 03:32:00,54.3,53.5,30.08,ENE,57,0.0,2.0,97,0.00,,,0.00,Wunderground v.1.15,2013-10-13 07:32:00,
2013-10-13 03:35:00,54.3,53.5,30.08,ENE,57,2.0,2.0,97,0.00,,,0.00,Wunderground v.1.15,2013-10-13 07:35:00,
2013-10-13 03:36:00,54.4,53.6,30.08,ENE,57,0.0,2.0,97,0.00,,,0.00,Wunderground v.1.15,2013-10-13 07:36:00,
2013-10-13 03:37:00,54.4,53.6,30.08,ENE,57,0.0,2.0,97,0.00,,,0.00,Wunderground v.1.15,2013-10-13 07:37:00,
2013-10-13 03:38:00,54.4,53.6,30.09,ENE,57,0.0,2.0,97,0.00,,,0.00,Wunderground v.1.15,2013-10-13 07:38:00,
2013-10-13 03:40:00,54.4,53.6,30.09,ENE,57,0.0,0.0,97,0.00,,,0.00,Wunderground v.1.15,2013-10-13 07:40:00,
2013-10-13 03:41:00,54.4,53.6,30.09,NE,56,0.0,2.0,97,0.00,,,0.00,Wunderground v.1.15,2013-10-13 07:41:00,
2013-10-13 03:42:00,54.5,53.7,30.09,NE,56,1.0,3.0,97,0.00,,,0.00,Wunderground v.1.15,2013-10-13 07:42:00,
2013-10-13 03:43:00,54.5,53.7,30.09,ENE,57,2.0,5.0,97,0.00,,,0.00,Wunderground v.1.15,2013-10-13 07:43:00,
2013-10-13 03:45:00,54.5,53.7,30.09,ENE,57,0.0,5.0,97,0.00,,,0.00,Wunderground v.1.15,2013-10-13 07:45:00,
2013-10-13 03:46:00,54.5,53.7,30.09,ENE,57,0.0,5.0,97,0.00,,,0.00,Wunderground v.1.15,2013-10-13 07:46:00,
2013-10-13 03:47:00,54.6,53.8,30.08,NE,56,2.0,5.0,97,0.00,,,0.00,Wunderground v.1.15,2013-10-13 07:47:00,
2013-10-13 03:48:00,54.6,53.8,30.09,ENE,57,1.0,5.0,97,0.00,,,0.00,Wunderground v.1.15,2013-10-13 07:48:00,
2013-10-13 03:49:00,54.6,53.8,30.09,ENE,57,0.0,5.0,97,0.00,,,0.00,Wunderground v.1.15,2013-10-13 07:49:00,
2013-10-13 03:50:00,54.6,53.8,30.09,ENE,57,0.0,1.0,97,0.00,,,0.00,Wunderground v.1.15,2013-10-13 07:50:00,
2013-10-13 03:51:00,54.6,53.8,30.09,ENE,57,0.0,2.0,97,0.00,,,0.00,Wunderground v.1.15,2013-10-13 07:51:00,
2013-10-13 03:53:00,54.6,53.8,30.09,NE,56,1.0,2.0,97,0.00,,,0.00,Wunderground v.1.15,2013-10-13 07:53:00,
2013-10-13 03:54:00,54.6,53.8,30.09,NE,56,0.0,2.0,97,0.00,,,0.00,Wunderground v.1.15,2013-10-13 07:54:00,
2013-10-13 03:55:00,54.6,53.8,30.09,NE,56,1.0,2.0,97,0.00,,,0.00,Wunderground v.1.15,2013-10-13 07:55:00,
2013-10-13 03:56:00,54.6,53.8,30.09,ENE,57,1.0,2.0,97,0.00,,,0.00,Wunderground v.1.15,2013-10-13 07:56:00,
2013-10-13 03:57:00,54.6,53.8,30.09,NE,56,0.0,2.0,97,0.00,,,0.00,Wunderground v.1.15,2013-10-13 07:57:00,
2013-10-13 03:58:00,54.6,53.8,30.09,NE,56,1.0,2.0,97,0.00,,,0.00,Wunderground v.1.15,2013-10-13 07:58:00,
2013-10-13 03:59:00,54.5,53.7,30.09,ENE,57,1.0,2.0,97,0.00,,,0.00,Wunderground v.1.15,2013-10-13 07:59:00,
2013-10-13 04:00:00,54.5,53.7,30.09,NE,56,2.0,2.0,97,0.00,,,0.00,Wunderground v.1.15,2013-10-13 08:00:00,
2013-10-13 04:02:00,54.5,53.7,30.09,ENE,57,0.0,2.0,97,0.00,,,0.00,Wunderground v.1.15,2013-10-13 08:02:00,
2013-10-13 04:03:00,54.5,53.7,30.09,ENE,57,0.0,2.0,97,0.00,,,0.00,Wunderground v.1.15,2013-10-13 08:03:00,
2013-10-13 04:04:00,54.4,53.6,30.09,ENE,57,0.0,2.0,97,0.00,,,0.00,Wunderground v.1.15,2013-10-13 08:04:00,
2013-10-13 04:05:00,54.4,53.6,30.09,ENE,57,0.0,2.0,97,0.00,,,0.00,Wunderground v.1.15,2013-10-13 08:05:00,
2013-10-13 04:07:00,54.4,53.6,30.09,NE,56,0.0,2.0,97,0.00,,,0.00,Wunderground v.1.15,2013-10-13 08:07:00,
2013-10-13 04:08:00,54.4,53.6,30.08,ENE,57,0.0,2.0,97,0.00,,,0.00,Wunderground v.1.15,2013-10-13 08:08:00,
2013-10-13 04:09:00,54.4,53.6,30.09,ENE,57,0.0,2.0,97,0.00,,,0.00,Wunderground v.1.15,2013-10-13 08:09:00,
2013-10-13 04:10:00,54.3,53.5,30.09,ENE,57,0.0,0.0,97,0.00,,,0.00,Wunderground v.1.15,2013-10-13 08:10:00,
2013-10-13 04:11:00,54.3,53.5,30.09,ENE,57,0.0,0.0,97,0.00,,,0.00,Wunderground v.1.15,2013-10-13 08:11:00,
2013-10-13 04:12:00,54.3,53.5,30.09,ENE,57,0.0,0.0,97,0.00,,,0.00,Wunderground v.1.15,2013-10-13 08:12:00,
2013-10-13 04:13:00,54.3,53.5,30.09,ENE,57,0.0,0.0,97,0.00,,,0.00,Wunderground v.1.15,2013-10-13 08:13:00,
2013-10-13 04:14:00,54.3,53.5,30.09,ENE,57,0.0,0.0,97,0.00,,,0.00,Wunderground v.1.15,2013-10-13 08:14:00,
2013-10-13 04:16:00,54.2,53.4,30.09,NE,56,0.0,0.0,97,0.00,,,0.00,Wunderground v.1.15,2013-10-13 08:16:00,
2013-10-13 04:17:00,54.2,53.4,30.09,NE,56,0.0,0.0,97,0.00,,,0.00,Wunderground v.1.15,2013-10-13 08:17:00,
2013-10-13 04:19:00,54.2,53.4,30.09,NE,56,0.0,0.0,97,0.00,,,0.00,Wunderground v.1.15,2013-10-13 08:19:00,
2013-10-13 04:21:00,54.1,53.3,30.09,ENE,57,0.0,0.0,97,0.00,,,0.00,Wunderground v.1.15,2013-10-13 08:21:00,
2013-10-13 04:22:00,54.1,53.3,30.09,NE,56,0.0,0.0,97,0.00,,,0.00,Wunderground v.1.15,2013-10-13 08:22:00,
2013-10-13 04:23:00,54.0,53.2,30.09,NE,56,0.0,0.0,97,0.00,,,0.00,Wunderground v.1.15,2013-10-13 08:23:00,
2013-10-13 04:24:00,54.0,53.2,30.09,ENE,57,0.0,0.0,97,0.00,,,0.00,Wunderground v.1.15,2013-10-13 08:24:00,
2013-10-13 04:25:00,54.0,53.2,30.09,ENE,57,0.0,0.0,97,0.00,,,0.00,Wunderground v.1.15,2013-10-13 08:25:00,
2013-10-13 04:27:00,53.9,53.1,30.09,ENE,57,0.0,0.0,97,0.00,,,0.00,Wunderground v.1.15,2013-10-13 08:27:00,
2013-10-13 04:28:00,53.9,53.1,30.10,NE,56,0.0,0.0,97,0.00,,,0.00,Wunderground v.1.15,2013-10-13 08:28:00,
2013-10-13 04:30:00,53.8,53.0,30.09,NE,56,0.0,0.0,97,0.00,,,0.00,Wunderground v.1.15,2013-10-13 08:30:00,
2013-10-13 04:32:00,53.7,52.6,30.09,ENE,57,0.0,0.0,96,0.00,,,0.00,Wunderground v.1.15,2013-10-13 08:32:00,
2013-10-13 04:34:00,53.7,52.6,30.09,ENE,57,0.0,0.0,96,0.00,,,0.00,Wunderground v.1.15,2013-10-13 08:34:00,
2013-10-13 04:35:00,53.6,52.5,30.09,NE,56,0.0,0.0,96,0.00,,,0.00,Wunderground v.1.15,2013-10-13 08:35:00,
2013-10-13 04:37:00,53.5,52.4,30.09,NE,56,0.0,2.0,96,0.00,,,0.00,Wunderground v.1.15,2013-10-13 08:37:00,
2013-10-13 04:39:00,53.4,52.3,30.09,ENE,57,0.0,2.0,96,0.00,,,0.00,Wunderground v.1.15,2013-10-13 08:39:00,
2013-10-13 04:40:00,53.3,52.2,30.09,ENE,57,0.0,0.0,96,0.00,,,0.00,Wunderground v.1.15,2013-10-13 08:40:00,
2013-10-13 04:41:00,53.3,52.2,30.09,ENE,57,0.0,0.0,96,0.00,,,0.00,Wunderground v.1.15,2013-10-13 08:41:00,
2013-10-13 04:42:00,53.3,52.2,30.09,ENE,57,2.0,2.0,96,0.00,,,0.00,Wunderground v.1.15,2013-10-13 08:42:00,
2013-10-13 04:44:00,53.3,52.5,30.09,ENE,57,0.0,4.0,97,0.00,,,0.00,Wunderground v.1.15,2013-10-13 08:44:00,
2013-10-13 04:45:00,53.3,52.5,30.09,NE,56,0.0,4.0,97,0.00,,,0.00,Wunderground v.1.15,2013-10-13 08:45:00,
2013-10-13 04:46:00,53.3,52.5,30.09,ENE,57,0.0,4.0,97,0.00,,,0.00,Wunderground v.1.15,2013-10-13 08:46:00,
2013-10-13 04:48:00,53.3,52.5,30.09,ENE,57,2.0,4.0,97,0.00,,,0.00,Wunderground v.1.15,2013-10-13 08:48:00,
2013-10-13 04:49:00,53.3,52.5,30.09,NE,56,0.0,4.0,97,0.00,,,0.00,Wunderground v.1.15,2013-10-13 08:49:00,
2013-10-13 04:50:00,53.3,52.5,30.09,NE,56,0.0,0.0,97,0.00,,,0.00,Wunderground v.1.15,2013-10-13 08:50:00,
2013-10-13 04:51:00,53.3,52.5,30.09,ENE,57,2.0,2.0,97,0.00,,,0.00,Wunderground v.1.15,2013-10-13 08:51:00,
2013-10-13 04:53:00,53.3,52.5,30.09,ENE,57,1.0,2.0,97,0.00,,,0.00,Wunderground v.1.15,2013-10-13 08:53:00,
2013-10-13 04:54:00,53.3,52.5,30.09,ENE,57,1.0,2.0,97,0.00,,,0.00,Wunderground v.1.15,2013-10-13 08:54:00,
2013-10-13 04:56:00,53.3,52.5,30.09,ENE,57,0.0,3.0,97,0.00,,,0.00,Wunderground v.1.15,2013-10-13 08:56:00,
2013-10-13 04:57:00,53.3,52.5,30.09,ENE,57,0.0,3.0,97,0.00,,,0.00,Wunderground v.1.15,2013-10-13 08:57:00,
2013-10-13 04:58:00,53.3,52.5,30.09,NE,56,0.0,3.0,97,0.00,,,0.00,Wunderground v.1.15,2013-10-13 08:58:00,
2013-10-13 04:59:00,53.3,52.5,30.09,ENE,57,1.0,3.0,97,0.00,,,0.00,Wunderground v.1.15,2013-10-13 08:59:00,
2013-10-13 05:00:00,53.3,52.5,30.09,ENE,57,1.0,1.0,97,0.00,,,0.00,Wunderground v.1.15,2013-10-13 09:00:00,
2013-10-13 05:01:00,53.3,52.5,30.10,ENE,57,0.0,1.0,97,0.00,,,0.00,Wunderground v.1.15,2013-10-13 09:01:00,
2013-10-13 05:02:00,53.3,52.5,30.10,ENE,57,0.0,1.0,97,0.00,,,0.00,Wunderground v.1.15,2013-10-13 09:02:00,
2013-10-13 05:03:00,53.3,52.5,30.09,ENE,57,1.0,1.0,97,0.00,,,0.00,Wunderground v.1.15,2013-10-13 09:03:00,
2013-10-13 05:04:00,53.3,52.5,30.09,ENE,57,0.0,1.0,97,0.00,,,0.00,Wunderground v.1.15,2013-10-13 09:04:00,
2013-10-13 05:05:00,53.3,52.5,30.09,ENE,57,0.0,1.0,97,0.00,,,0.00,Wunderground v.1.15,2013-10-13 09:05:00,
2013-10-13 05:06:00,53.3,52.5,30.09,NE,56,0.0,1.0,97,0.00,,,0.00,Wunderground v.1.15,2013-10-13 09:06:00,
2013-10-13 05:07:00,53.3,52.5,30.09,ENE,57,0.0,1.0,97,0.00,,,0.00,Wunderground v.1.15,2013-10-13 09:07:00,
2013-10-13 05:08:00,53.2,52.4,30.09,ENE,57,1.0,1.0,97,0.00,,,0.00,Wunderground v.1.15,2013-10-13 09:08:00,
2013-10-13 05:09:00,53.2,52.4,30.09,NE,56,0.0,1.0,97,0.00,,,0.00,Wunderground v.1.15,2013-10-13 09:09:00,
2013-10-13 05:11:00,53.2,52.4,30.09,ENE,57,0.0,0.0,97,0.00,,,0.00,Wunderground v.1.15,2013-10-13 09:11:00,
2013-10-13 05:12:00,53.2,52.4,30.10,NE,56,0.0,0.0,97,0.00,,,0.00,Wunderground v.1.15,2013-10-13 09:12:00,
2013-10-13 05:13:00,53.1,52.3,30.09,ENE,57,0.0,0.0,97,0.00,,,0.00,Wunderground v.1.15,2013-10-13 09:13:00,
2013-10-13 05:14:00,53.1,52.3,30.10,ENE,57,0.0,0.0,97,0.00,,,0.00,Wunderground v.1.15,2013-10-13 09:14:00,
2013-10-13 05:15:00,53.1,52.3,30.10,ENE,57,0.0,0.0,97,0.00,,,0.00,Wunderground v.1.15,2013-10-13 09:15:00,
2013-10-13 05:16:00,53.0,52.2,30.10,ENE,57,0.0,1.0,97,0.00,,,0.00,Wunderground v.1.15,2013-10-13 09:16:00,
2013-10-13 05:17:00,53.0,52.2,30.10,ENE,57,0.0,1.0,97,0.00,,,0.00,Wunderground v.1.15,2013-10-13 09:17:00,
2013-10-13 05:18:00,53.0,52.2,30.10,ENE,57,0.0,1.0,97,0.00,,,0.00,Wunderground v.1.15,2013-10-13 09:18:00,
2013-10-13 05:20:00,52.9,52.1,30.10,NE,56,0.0,1.0,97,0.00,,,0.00,Wunderground v.1.15,2013-10-13 09:20:00,
2013-10-13 05:21:00,52.9,52.1,30.10,NE,56,0.0,1.0,97,0.00,,,0.00,Wunderground v.1.15,2013-10-13 09:21:00,
2013-10-13 05:22:00,52.9,52.1,30.10,ENE,57,0.0,1.0,97,0.00,,,0.00,Wunderground v.1.15,2013-10-13 09:22:00,
2013-10-13 05:23:00,52.9,52.1,30.10,ENE,57,0.0,1.0,97,0.00,,,0.00,Wunderground v.1.15,2013-10-13 09:23:00,
2013-10-13 05:24:00,52.9,52.1,30.10,NE,56,1.0,1.0,97,0.00,,,0.00,Wunderground v.1.15,2013-10-13 09:24:00,
2013-10-13 05:25:00,52.9,52.1,30.10,ENE,57,0.0,1.0,97,0.00,,,0.00,Wunderground v.1.15,2013-10-13 09:25:00,
2013-10-13 05:27:00,53.0,52.2,30.10,NE,56,0.0,1.0,97,0.00,,,0.00,Wunderground v.1.15,2013-10-13 09:27:00,
2013-10-13 05:28:00,53.0,52.2,30.10,ENE,57,0.0,1.0,97,0.00,,,0.00,Wunderground v.1.15,2013-10-13 09:28:00,
2013-10-13 05:29:00,53.0,52.2,30.10,ENE,57,0.0,1.0,97,0.00,,,0.00,Wunderground v.1.15,2013-10-13 09:29:00,
2013-10-13 05:30:00,53.0,52.2,30.10,NE,56,0.0,0.0,97,0.00,,,0.00,Wunderground v.1.15,2013-10-13 09:30:00,
2013-10-13 05:31:00,53.0,52.2,30.10,NE,56,1.0,1.0,97,0.00,,,0.00,Wunderground v.1.15,2013-10-13 09:31:00,
2013-10-13 05:32:00,53.0,52.2,30.10,NE,56,0.0,1.0,97,0.00,,,0.00,Wunderground v.1.15,2013-10-13 09:32:00,
2013-10-13 05:33:00,53.0,52.2,30.10,NE,56,0.0,1.0,97,0.00,,,0.00,Wunderground v.1.15,2013-10-13 09:33:00,
2013-10-13 05:34:00,53.0,52.2,30.10,ENE,57,2.0,2.0,97,0.00,,,0.00,Wunderground v.1.15,2013-10-13 09:34:00,
2013-10-13 05:35:00,53.0,52.2,30.10,ENE,57,0.0,2.0,97,0.00,,,0.00,Wunderground v.1.15,2013-10-13 09:35:00,
2013-10-13 05:37:00,53.0,52.2,30.10,ENE,57,0.0,2.0,97,0.00,,,0.00,Wunderground v.1.15,2013-10-13 09:37:00,
2013-10-13 05:38:00,53.0,52.2,30.10,NE,56,0.0,2.0,97,0.00,,,0.00,Wunderground v.1.15,2013-10-13 09:38:00,
2013-10-13 05:39:00,53.0,52.2,30.10,NE,56,0.0,2.0,97,0.00,,,0.00,Wunderground v.1.15,2013-10-13 09:39:00,
2013-10-13 05:41:00,53.0,52.2,30.11,NE,56,1.0,2.0,97,0.00,,,0.00,Wunderground v.1.15,2013-10-13 09:41:00,
2013-10-13 05:42:00,53.0,52.2,30.10,ENE,57,1.0,2.0,97,0.00,,,0.00,Wunderground v.1.15,2013-10-13 09:42:00,
2013-10-13 05:43:00,53.1,52.3,30.10,ENE,57,0.0,3.0,97,0.00,,,0.00,Wunderground v.1.15,2013-10-13 09:43:00,
2013-10-13 05:44:00,53.1,52.3,30.10,NE,56,0.0,3.0,97,0.00,,,0.00,Wunderground v.1.15,2013-10-13 09:44:00,
2013-10-13 05:45:00,53.1,52.3,30.10,NE,56,3.0,3.0,97,0.00,,,0.00,Wunderground v.1.15,2013-10-13 09:45:00,
2013-10-13 05:46:00,53.1,52.3,30.10,NE,56,2.0,3.0,97,0.00,,,0.00,Wunderground v.1.15,2013-10-13 09:46:00,
2013-10-13 05:47:00,53.1,52.3,30.10,NE,56,1.0,3.0,97,0.00,,,0.00,Wunderground v.1.15,2013-10-13 09:47:00,
2013-10-13 05:49:00,53.1,52.3,30.10,NE,56,0.0,3.0,97,0.00,,,0.00,Wunderground v.1.15,2013-10-13 09:49:00,
2013-10-13 05:50:00,53.2,52.4,30.10,ENE,57,1.0,1.0,97,0.00,,,0.00,Wunderground v.1.15,2013-10-13 09:50:00,
2013-10-13 05:51:00,53.2,52.4,30.10,ENE,57,0.0,3.0,97,0.00,,,0.00,Wunderground v.1.15,2013-10-13 09:51:00,
2013-10-13 05:52:00,53.2,52.4,30.10,NE,56,0.0,3.0,97,0.00,,,0.00,Wunderground v.1.15,2013-10-13 09:52:00,
2013-10-13 05:54:00,53.2,52.4,30.11,NE,56,1.0,3.0,97,0.00,,,0.00,Wunderground v.1.15,2013-10-13 09:54:00,
2013-10-13 05:55:00,53.2,52.4,30.11,ENE,57,1.0,3.0,97,0.00,,,0.00,Wunderground v.1.15,2013-10-13 09:55:00,
2013-10-13 05:56:00,53.2,52.4,30.11,NE,56,0.0,3.0,97,0.00,,,0.00,Wunderground v.1.15,2013-10-13 09:56:00,
2013-10-13 05:57:00,53.2,52.4,30.11,ENE,57,1.0,3.0,97,0.00,,,0.00,Wunderground v.1.15,2013-10-13 09:57:00,
2013-10-13 05:59:00,53.2,52.4,30.11,NE,56,0.0,3.0,97,0.00,,,0.00,Wunderground v.1.15,2013-10-13 09:59:00,
2013-10-13 06:00:00,53.3,52.5,30.11,NE,56,0.0,3.0,97,0.00,,,0.00,Wunderground v.1.15,2013-10-13 10:00:00,
2013-10-13 06:01:00,53.2,52.4,30.11,NE,56,0.0,1.0,97,0.00,,,0.00,Wunderground v.1.15,2013-10-13 10:01:00,
2013-10-13 06:03:00,53.2,52.4,30.11,NE,56,0.0,1.0,97,0.00,,,0.00,Wunderground v.1.15,2013-10-13 10:03:00,
2013-10-13 06:04:00,53.2,52.4,30.11,ENE,57,0.0,1.0,97,0.00,,,0.00,Wunderground v.1.15,2013-10-13 10:04:00,
2013-10-13 06:05:00,53.2,52.4,30.10,ENE,57,0.0,1.0,97,0.00,,,0.00,Wunderground v.1.15,2013-10-13 10:05:00,
2013-10-13 06:06:00,53.1,52.3,30.10,ENE,57,0.0,1.0,97,0.00,,,0.00,Wunderground v.1.15,2013-10-13 10:06:00,
2013-10-13 06:07:00,53.1,52.3,30.10,ENE,57,0.0,1.0,97,0.00,,,0.00,Wunderground v.1.15,2013-10-13 10:07:00,
2013-10-13 06:08:00,53.0,52.2,30.11,ENE,57,0.0,1.0,97,0.00,,,0.00,Wunderground v.1.15,2013-10-13 10:08:00,
2013-10-13 06:09:00,53.0,52.2,30.11,NE,56,0.0,1.0,97,0.00,,,0.00,Wunderground v.1.15,2013-10-13 10:09:00,
2013-10-13 06:10:00,52.9,52.1,30.11,ENE,57,1.0,1.0,97,0.00,,,0.00,Wunderground v.1.15,2013-10-13 10:10:00,
2013-10-13 06:12:00,52.8,52.0,30.11,ENE,57,1.0,2.0,97,0.00,,,0.00,Wunderground v.1.15,2013-10-13 10:12:00,
2013-10-13 06:14:00,52.8,52.0,30.11,NE,56,0.0,2.0,97,0.00,,,0.00,Wunderground v.1.15,2013-10-13 10:14:00,
2013-10-13 06:15:00,52.8,52.0,30.11,ENE,57,1.0,2.0,97,0.00,,,0.00,Wunderground v.1.15,2013-10-13 10:15:00,
2013-10-13 06:17:00,52.8,52.0,30.11,ENE,57,0.0,2.0,97,0.00,,,0.00,Wunderground v.1.15,2013-10-13 10:17:00,
2013-10-13 06:19:00,52.9,52.1,30.11,ENE,57,0.0,3.0,97,0.00,,,0.00,Wunderground v.1.15,2013-10-13 10:19:00,
2013-10-13 06:20:00,53.0,52.2,30.11,NE,56,0.0,1.0,97,0.00,,,0.00,Wunderground v.1.15,2013-10-13 10:20:00,
2013-10-13 06:22:00,53.0,52.2,30.11,ENE,57,1.0,2.0,97,0.00,,,0.00,Wunderground v.1.15,2013-10-13 10:22:00,
2013-10-13 06:24:00,53.1,52.3,30.11,ENE,57,0.0,2.0,97,0.00,,,0.00,Wunderground v.1.15,2013-10-13 10:24:00,
2013-10-13 06:26:00,53.1,52.3,30.11,ENE,57,0.0,2.0,97,0.00,,,0.00,Wunderground v.1.15,2013-10-13 10:26:00,
2013-10-13 06:27:00,53.1,52.3,30.11,ENE,57,0.0,2.0,97,0.00,,,0.00,Wunderground v.1.15,2013-10-13 10:27:00,
2013-10-13 06:28:00,53.1,52.3,30.11,ENE,57,0.0,2.0,97,0.00,,,0.00,Wunderground v.1.15,2013-10-13 10:28:00,
2013-10-13 06:29:00,53.2,52.4,30.11,NE,56,0.0,2.0,97,0.00,,,0.00,Wunderground v.1.15,2013-10-13 10:29:00,
2013-10-13 06:31:00,53.2,52.4,30.11,ENE,57,0.0,0.0,97,0.00,,,0.00,Wunderground v.1.15,2013-10-13 10:31:00,
2013-10-13 06:32:00,53.2,52.4,30.11,NE,56,1.0,1.0,97,0.00,,,0.00,Wunderground v.1.15,2013-10-13 10:32:00,
2013-10-13 06:34:00,53.2,52.4,30.11,NE,56,1.0,1.0,97,0.00,,,0.00,Wunderground v.1.15,2013-10-13 10:34:00,
2013-10-13 06:35:00,53.2,52.4,30.11,NE,56,0.0,1.0,97,0.00,,,0.00,Wunderground v.1.15,2013-10-13 10:35:00,
2013-10-13 06:36:00,53.2,52.4,30.11,NE,56,0.0,1.0,97,0.00,,,0.00,Wunderground v.1.15,2013-10-13 10:36:00,
2013-10-13 06:37:00,53.2,52.4,30.12,ENE,57,0.0,1.0,97,0.00,,,0.00,Wunderground v.1.15,2013-10-13 10:37:00,
2013-10-13 06:39:00,53.2,52.4,30.12,ENE,57,0.0,2.0,97,0.00,,,0.00,Wunderground v.1.15,2013-10-13 10:39:00,
2013-10-13 06:40:00,53.2,52.4,30.12,NE,56,0.0,0.0,97,0.00,,,0.00,Wunderground v.1.15,2013-10-13 10:40:00,
2013-10-13 06:41:00,53.2,52.4,30.12,NE,56,0.0,0.0,97,0.00,,,0.00,Wunderground v.1.15,2013-10-13 10:41:00,
2013-10-13 06:42:00,53.2,52.4,30.12,ENE,57,0.0,1.0,97,0.00,,,0.00,Wunderground v.1.15,2013-10-13 10:42:00,
2013-10-13 06:43:00,53.2,52.4,30.12,ENE,57,0.0,1.0,97,0.00,,,0.00,Wunderground v.1.15,2013-10-13 10:43:00,
2013-10-13 06:45:00,53.2,52.4,30.12,ENE,57,0.0,1.0,97,0.00,,,0.00,Wunderground v.1.15,2013-10-13 10:45:00,
2013-10-13 06:46:00,53.2,52.4,30.12,NE,56,0.0,1.0,97,0.00,,,0.00,Wunderground v.1.15,2013-10-13 10:46:00,
2013-10-13 06:47:00,53.1,52.3,30.12,ENE,57,0.0,1.0,97,0.00,,,0.00,Wunderground v.1.15,2013-10-13 10:47:00,
2013-10-13 06:48:00,53.2,52.4,30.12,ENE,57,0.0,1.0,97,0.00,,,0.00,Wunderground v.1.15,2013-10-13 10:48:00,
2013-10-13 06:50:00,53.1,52.3,30.12,NE,56,0.0,0.0,97,0.00,,,0.00,Wunderground v.1.15,2013-10-13 10:50:00,
2013-10-13 06:51:00,53.1,52.3,30.12,ENE,57,0.0,0.0,97,0.00,,,0.00,Wunderground v.1.15,2013-10-13 10:51:00,
2013-10-13 06:52:00,53.1,52.3,30.12,NE,56,0.0,0.0,97,0.00,,,0.00,Wunderground v.1.15,2013-10-13 10:52:00,
2013-10-13 06:53:00,53.1,52.3,30.12,NE,56,0.0,0.0,97,0.00,,,0.00,Wunderground v.1.15,2013-10-13 10:53:00,
2013-10-13 06:55:00,53.1,52.3,30.12,NE,56,0.0,1.0,97,0.00,,,0.00,Wunderground v.1.15,2013-10-13 10:55:00,
2013-10-13 06:56:00,53.1,52.3,30.12,NE,56,0.0,1.0,97,0.00,,,0.00,Wunderground v.1.15,2013-10-13 10:56:00,
2013-10-13 06:58:00,53.0,52.2,30.12,NE,56,0.0,1.0,97,0.00,,,0.00,Wunderground v.1.15,2013-10-13 10:58:00,
2013-10-13 06:59:00,53.0,52.2,30.12,ENE,57,0.0,1.0,97,0.00,,,0.00,Wunderground v.1.15,2013-10-13 10:59:00,
2013-10-13 07:00:00,53.0,52.2,30.12,ENE,57,0.0,0.0,97,0.00,,,0.00,Wunderground v.1.15,2013-10-13 11:00:00,
2013-10-13 07:01:00,53.0,52.2,30.12,ENE,57,0.0,2.0,97,0.00,,,0.00,Wunderground v.1.15,2013-10-13 11:01:00,
2013-10-13 07:03:00,52.9,52.1,30.12,NE,56,0.0,2.0,97,0.00,,,0.00,Wunderground v.1.15,2013-10-13 11:03:00,
2013-10-13 07:04:00,52.9,52.1,30.12,ENE,57,0.0,2.0,97,0.00,,,0.00,Wunderground v.1.15,2013-10-13 11:04:00,
2013-10-13 07:06:00,52.9,52.1,30.12,ENE,57,0.0,2.0,97,0.00,,,0.00,Wunderground v.1.15,2013-10-13 11:06:00,
2013-10-13 07:08:00,52.8,52.0,30.13,NE,56,0.0,2.0,97,0.00,,,0.00,Wunderground v.1.15,2013-10-13 11:08:00,
2013-10-13 07:09:00,52.8,52.0,30.12,ENE,57,0.0,2.0,97,0.00,,,0.00,Wunderground v.1.15,2013-10-13 11:09:00,
2013-10-13 07:10:00,52.8,52.0,30.12,ENE,57,0.0,2.0,97,0.00,,,0.00,Wunderground v.1.15,2013-10-13 11:10:00,
2013-10-13 07:11:00,52.7,51.9,30.13,ENE,57,0.0,0.0,97,0.00,,,0.00,Wunderground v.1.15,2013-10-13 11:11:00,
2013-10-13 07:12:00,52.7,51.9,30.12,NE,56,0.0,0.0,97,0.00,,,0.00,Wunderground v.1.15,2013-10-13 11:12:00,
2013-10-13 07:14:00,52.5,51.7,30.13,NE,56,0.0,0.0,97,0.00,,,0.00,Wunderground v.1.15,2013-10-13 11:14:00,
2013-10-13 07:15:00,52.5,51.7,30.13,NE,56,0.0,0.0,97,0.00,,,0.00,Wunderground v.1.15,2013-10-13 11:15:00,
2013-10-13 07:16:00,52.4,51.6,30.13,NE,56,0.0,0.0,97,0.00,,,0.00,Wunderground v.1.15,2013-10-13 11:16:00,
2013-10-13 07:17:00,52.4,51.6,30.13,ENE,57,0.0,0.0,97,0.00,,,0.00,Wunderground v.1.15,2013-10-13 11:17:00,
2013-10-13 07:20:00,52.2,51.4,30.13,NE,56,0.0,0.0,97,0.00,,,0.00,Wunderground v.1.15,2013-10-13 11:20:00,
2013-10-13 07:21:00,52.1,51.3,30.13,NE,56,0.0,0.0,97,0.00,,,0.00,Wunderground v.1.15,2013-10-13 11:21:00,
2013-10-13 07:22:00,52.1,51.3,30.13,NE,56,0.0,0.0,97,0.00,,,0.00,Wunderground v.1.15,2013-10-13 11:22:00,
2013-10-13 07:24:00,52.1,51.3,30.13,ENE,57,0.0,0.0,97,0.00,,,0.00,Wunderground v.1.15,2013-10-13 11:24:00,
2013-10-13 07:25:00,52.0,51.2,30.13,ENE,57,0.0,0.0,97,0.00,,,0.00,Wunderground v.1.15,2013-10-13 11:25:00,
2013-10-13 07:26:00,51.9,51.1,30.13,ENE,57,0.0,0.0,97,0.00,,,0.00,Wunderground v.1.15,2013-10-13 11:26:00,
2013-10-13 07:27:00,51.9,51.1,30.13,NE,56,0.0,0.0,97,0.00,,,0.00,Wunderground v.1.15,2013-10-13 11:27:00,
2013-10-13 07:29:00,51.9,51.1,30.13,NE,56,0.0,0.0,97,0.00,,,0.00,Wunderground v.1.15,2013-10-13 11:29:00,
2013-10-13 07:30:00,51.9,51.1,30.13,NE,56,0.0,0.0,97,0.00,,,0.00,Wunderground v.1.15,2013-10-13 11:30:00,
2013-10-13 07:31:00,51.8,51.0,30.13,ENE,57,0.0,0.0,97,0.00,,,0.00,Wunderground v.1.15,2013-10-13 11:31:00,
2013-10-13 07:32:00,51.8,51.0,30.13,ENE,57,0.0,0.0,97,0.00,,,0.00,Wunderground v.1.15,2013-10-13 11:32:00,
2013-10-13 07:34:00,51.7,50.9,30.13,NE,56,0.0,0.0,97,0.00,,,0.00,Wunderground v.1.15,2013-10-13 11:34:00,
2013-10-13 07:35:00,51.7,50.9,30.13,ENE,57,0.0,0.0,97,0.00,,,0.00,Wunderground v.1.15,2013-10-13 11:35:00,
2013-10-13 07:36:00,51.7,50.9,30.13,NE,56,0.0,0.0,97,0.00,,,0.00,Wunderground v.1.15,2013-10-13 11:36:00,
2013-10-13 07:37:00,51.7,50.9,30.13,ENE,57,0.0,0.0,97,0.00,,,0.00,Wunderground v.1.15,2013-10-13 11:37:00,
2013-10-13 07:39:00,51.7,50.9,30.13,NE,56,0.0,0.0,97,0.00,,,0.00,Wunderground v.1.15,2013-10-13 11:39:00,
2013-10-13 07:40:00,51.7,50.9,30.13,ENE,57,0.0,0.0,97,0.00,,,0.00,Wunderground v.1.15,2013-10-13 11:40:00,
2013-10-13 07:42:00,51.7,50.9,30.13,NE,56,0.0,0.0,97,0.00,,,0.00,Wunderground v.1.15,2013-10-13 11:42:00,
2013-10-13 07:43:00,51.7,50.9,30.13,ENE,57,0.0,0.0,97,0.00,,,0.00,Wunderground v.1.15,2013-10-13 11:43:00,
2013-10-13 07:44:00,51.7,50.9,30.13,ENE,57,0.0,0.0,97,0.00,,,0.00,Wunderground v.1.15,2013-10-13 11:44:00,
2013-10-13 07:45:00,51.8,51.0,30.13,ENE,57,0.0,0.0,97,0.00,,,0.00,Wunderground v.1.15,2013-10-13 11:45:00,
2013-10-13 07:47:00,51.9,51.1,30.13,NE,56,0.0,0.0,97,0.00,,,0.00,Wunderground v.1.15,2013-10-13 11:47:00,
2013-10-13 07:48:00,51.9,51.1,30.13,ENE,57,0.0,0.0,97,0.00,,,0.00,Wunderground v.1.15,2013-10-13 11:48:00,
2013-10-13 07:49:00,51.9,51.1,30.13,ENE,57,0.0,0.0,97,0.00,,,0.00,Wunderground v.1.15,2013-10-13 11:49:00,
2013-10-13 07:51:00,52.0,51.2,30.13,ENE,57,0.0,0.0,97,0.00,,,0.00,Wunderground v.1.15,2013-10-13 11:51:00,
2013-10-13 07:52:00,52.1,51.3,30.13,ENE,57,0.0,0.0,97,0.00,,,0.00,Wunderground v.1.15,2013-10-13 11:52:00,
2013-10-13 07:53:00,52.1,51.3,30.13,ENE,57,0.0,0.0,97,0.00,,,0.00,Wunderground v.1.15,2013-10-13 11:53:00,
2013-10-13 07:55:00,52.2,51.7,30.13,ENE,57,0.0,0.0,98,0.00,,,0.00,Wunderground v.1.15,2013-10-13 11:55:00,
2013-10-13 07:56:00,52.2,51.7,30.13,NE,56,0.0,0.0,98,0.00,,,0.00,Wunderground v.1.15,2013-10-13 11:56:00,
2013-10-13 07:57:00,52.2,51.7,30.13,ENE,57,0.0,0.0,98,0.00,,,0.00,Wunderground v.1.15,2013-10-13 11:57:00,
2013-10-13 07:58:00,52.2,51.7,30.13,NE,56,0.0,0.0,98,0.00,,,0.00,Wunderground v.1.15,2013-10-13 11:58:00,
2013-10-13 08:00:00,52.2,51.4,30.13,ENE,57,0.0,0.0,97,0.00,,,0.00,Wunderground v.1.15,2013-10-13 12:00:00,
2013-10-13 08:01:00,52.2,51.4,30.13,ENE,57,0.0,0.0,97,0.00,,,0.00,Wunderground v.1.15,2013-10-13 12:01:00,
2013-10-13 08:02:00,52.2,51.4,30.13,NE,56,0.0,0.0,97,0.00,,,0.00,Wunderground v.1.15,2013-10-13 12:02:00,
2013-10-13 08:03:00,52.2,51.4,30.13,ENE,57,0.0,0.0,97,0.00,,,0.00,Wunderground v.1.15,2013-10-13 12:03:00,
2013-10-13 08:05:00,52.2,51.4,30.13,ENE,57,0.0,0.0,97,0.00,,,0.00,Wunderground v.1.15,2013-10-13 12:05:00,
2013-10-13 08:07:00,52.2,51.4,30.13,ENE,57,0.0,0.0,97,0.00,,,0.00,Wunderground v.1.15,2013-10-13 12:07:00,
2013-10-13 08:08:00,52.2,51.4,30.13,ENE,57,0.0,0.0,97,0.00,,,0.00,Wunderground v.1.15,2013-10-13 12:08:00,
2013-10-13 08:09:00,52.2,51.4,30.13,NE,56,0.0,0.0,97,0.00,,,0.00,Wunderground v.1.15,2013-10-13 12:09:00,
2013-10-13 08:10:00,52.3,51.5,30.14,NE,56,0.0,0.0,97,0.00,,,0.00,Wunderground v.1.15,2013-10-13 12:10:00,
2013-10-13 08:11:00,52.3,51.5,30.13,ENE,57,0.0,0.0,97,0.00,,,0.00,Wunderground v.1.15,2013-10-13 12:11:00,
2013-10-13 08:12:00,52.4,51.9,30.13,NE,56,0.0,1.0,98,0.00,,,0.00,Wunderground v.1.15,2013-10-13 12:12:00,
2013-10-13 08:13:00,52.4,51.9,30.14,ENE,57,0.0,1.0,98,0.00,,,0.00,Wunderground v.1.15,2013-10-13 12:13:00,
2013-10-13 08:14:00,52.4,51.9,30.14,ENE,57,3.0,3.0,98,0.00,,,0.00,Wunderground v.1.15,2013-10-13 12:14:00,
2013-10-13 08:16:00,52.6,51.8,30.14,NE,56,1.0,3.0,97,0.00,,,0.00,Wunderground v.1.15,2013-10-13 12:16:00,
2013-10-13 08:17:00,52.6,52.1,30.14,ENE,57,1.0,3.0,98,0.00,,,0.00,Wunderground v.1.15,2013-10-13 12:17:00,
2013-10-13 08:18:00,52.7,52.2,30.14,NE,56,0.0,3.0,98,0.00,,,0.00,Wunderground v.1.15,2013-10-13 12:18:00,
2013-10-13 08:19:00,52.8,52.3,30.14,NE,56,1.0,3.0,98,0.00,,,0.00,Wunderground v.1.15,2013-10-13 12:19:00,
2013-10-13 08:20:00,52.9,52.4,30.14,ENE,57,1.0,3.0,98,0.00,,,0.00,Wunderground v.1.15,2013-10-13 12:20:00,
2013-10-13 08:21:00,53.0,52.5,30.14,ENE,57,0.0,2.0,98,0.00,,,0.00,Wunderground v.1.15,2013-10-13 12:21:00,
2013-10-13 08:23:00,53.1,52.6,30.14,ENE,57,1.0,2.0,98,0.00,,,0.00,Wunderground v.1.15,2013-10-13 12:23:00,
2013-10-13 08:24:00,53.2,52.7,30.14,ENE,57,0.0,2.0,98,0.00,,,0.00,Wunderground v.1.15,2013-10-13 12:24:00,
2013-10-13 08:25:00,53.2,52.7,30.14,NE,56,0.0,2.0,98,0.00,,,0.00,Wunderground v.1.15,2013-10-13 12:25:00,
2013-10-13 08:28:00,53.4,52.8,30.14,ENE,57,0.0,2.0,98,0.00,,,0.00,Wunderground v.1.15,2013-10-13 12:28:00,
2013-10-13 08:29:00,53.4,52.8,30.14,ENE,57,0.0,2.0,98,0.00,,,0.00,Wunderground v.1.15,2013-10-13 12:29:00,
2013-10-13 08:30:00,53.4,52.8,30.14,ENE,57,0.0,0.0,98,0.00,,,0.00,Wunderground v.1.15,2013-10-13 12:30:00,
2013-10-13 08:31:00,53.5,52.9,30.14,NE,56,0.0,0.0,98,0.00,,,0.00,Wunderground v.1.15,2013-10-13 12:31:00,
2013-10-13 08:33:00,53.6,53.0,30.14,NE,56,0.0,0.0,98,0.00,,,0.00,Wunderground v.1.15,2013-10-13 12:33:00,
2013-10-13 08:34:00,53.6,53.0,30.14,ENE,57,0.0,0.0,98,0.00,,,0.00,Wunderground v.1.15,2013-10-13 12:34:00,
2013-10-13 08:35:00,53.6,53.0,30.14,ENE,57,0.0,0.0,98,0.00,,,0.00,Wunderground v.1.15,2013-10-13 12:35:00,
2013-10-13 08:36:00,53.7,53.1,30.14,NE,56,0.0,1.0,98,0.00,,,0.00,Wunderground v.1.15,2013-10-13 12:36:00,
2013-10-13 08:38:00,53.9,53.3,30.14,NE,56,0.0,1.0,98,0.00,,,0.00,Wunderground v.1.15,2013-10-13 12:38:00,
2013-10-13 08:39:00,53.9,53.3,30.14,ENE,57,0.0,1.0,98,0.00,,,0.00,Wunderground v.1.15,2013-10-13 12:39:00,
2013-10-13 08:40:00,53.9,53.3,30.14,NE,56,0.0,1.0,98,0.00,,,0.00,Wunderground v.1.15,2013-10-13 12:40:00,
2013-10-13 08:41:00,54.1,53.5,30.14,NE,56,0.0,0.0,98,0.00,,,0.00,Wunderground v.1.15,2013-10-13 12:41:00,
2013-10-13 08:44:00,54.2,53.6,30.14,ENE,57,0.0,0.0,98,0.00,,,0.00,Wunderground v.1.15,2013-10-13 12:44:00,
2013-10-13 08:45:00,54.3,53.7,30.15,ENE,57,0.0,0.0,98,0.00,,,0.00,Wunderground v.1.15,2013-10-13 12:45:00,
2013-10-13 08:48:00,54.5,53.9,30.15,NE,56,0.0,0.0,98,0.00,,,0.00,Wunderground v.1.15,2013-10-13 12:48:00,
2013-10-13 08:49:00,54.6,54.0,30.15,ENE,57,0.0,0.0,98,0.00,,,0.00,Wunderground v.1.15,2013-10-13 12:49:00,
2013-10-13 08:50:00,54.6,54.0,30.15,ENE,57,0.0,0.0,98,0.00,,,0.00,Wunderground v.1.15,2013-10-13 12:50:00,
2013-10-13 08:51:00,54.7,54.1,30.15,ENE,57,1.0,1.0,98,0.00,,,0.00,Wunderground v.1.15,2013-10-13 12:51:00,
2013-10-13 08:54:00,54.9,54.3,30.15,ENE,57,0.0,1.0,98,0.00,,,0.00,Wunderground v.1.15,2013-10-13 12:54:00,
2013-10-13 08:55:00,54.9,54.3,30.15,ENE,57,0.0,1.0,98,0.00,,,0.00,Wunderground v.1.15,2013-10-13 12:55:00,
2013-10-13 08:56:00,55.0,54.4,30.15,NE,56,0.0,1.0,98,0.00,,,0.00,Wunderground v.1.15,2013-10-13 12:56:00,
2013-10-13 08:59:00,55.3,54.7,30.15,NE,56,0.0,1.0,98,0.00,,,0.00,Wunderground v.1.15,2013-10-13 12:59:00,
2013-10-13 09:00:00,55.5,54.9,30.15,NE,56,0.0,0.0,98,0.00,,,0.00,Wunderground v.1.15,2013-10-13 13:00:00,
2013-10-13 09:01:00,55.6,55.0,30.15,ENE,57,0.0,0.0,98,0.00,,,0.00,Wunderground v.1.15,2013-10-13 13:01:00,
2013-10-13 09:04:00,56.1,55.5,30.15,ENE,57,0.0,0.0,98,0.00,,,0.00,Wunderground v.1.15,2013-10-13 13:04:00,
2013-10-13 09:05:00,56.3,55.7,30.15,ENE,57,0.0,0.0,98,0.00,,,0.00,Wunderground v.1.15,2013-10-13 13:05:00,
2013-10-13 09:06:00,56.3,55.7,30.15,ENE,57,0.0,0.0,98,0.00,,,0.00,Wunderground v.1.15,2013-10-13 13:06:00,
2013-10-13 09:07:00,56.5,55.9,30.15,ENE,57,0.0,0.0,98,0.00,,,0.00,Wunderground v.1.15,2013-10-13 13:07:00,
2013-10-13 09:10:00,56.9,56.3,30.16,ENE,57,0.0,1.0,98,0.00,,,0.00,Wunderground v.1.15,2013-10-13 13:10:00,
2013-10-13 09:11:00,57.1,56.5,30.16,NE,56,0.0,1.0,98,0.00,,,0.00,Wunderground v.1.15,2013-10-13 13:11:00,
2013-10-13 09:12:00,57.2,56.6,30.15,ENE,57,0.0,1.0,98,0.00,,,0.00,Wunderground v.1.15,2013-10-13 13:12:00,
2013-10-13 09:15:00,57.5,56.9,30.16,ENE,57,0.0,1.0,98,0.00,,,0.00,Wunderground v.1.15,2013-10-13 13:15:00,
2013-10-13 09:16:00,57.5,56.9,30.16,ENE,57,0.0,2.0,98,0.00,,,0.00,Wunderground v.1.15,2013-10-13 13:16:00,
2013-10-13 09:17:00,57.6,57.0,30.15,NE,56,0.0,2.0,98,0.00,,,0.00,Wunderground v.1.15,2013-10-13 13:17:00,
2013-10-13 09:20:00,57.8,57.2,30.16,ENE,57,0.0,0.0,98,0.00,,,0.00,Wunderground v.1.15,2013-10-13 13:20:00,
2013-10-13 09:21:00,57.8,57.2,30.16,ENE,57,0.0,0.0,98,0.00,,,0.00,Wunderground v.1.15,2013-10-13 13:21:00,
2013-10-13 09:22:00,58.0,57.4,30.15,ENE,57,1.0,3.0,98,0.00,,,0.00,Wunderground v.1.15,2013-10-13 13:22:00,
2013-10-13 09:23:00,58.0,57.4,30.15,ENE,57,0.0,3.0,98,0.00,,,0.00,Wunderground v.1.15,2013-10-13 13:23:00,
2013-10-13 09:25:00,58.1,57.5,30.15,ENE,57,1.0,3.0,98,0.00,,,0.00,Wunderground v.1.15,2013-10-13 13:25:00,
2013-10-13 09:26:00,58.1,57.5,30.15,ENE,57,2.0,3.0,98,0.00,,,0.00,Wunderground v.1.15,2013-10-13 13:26:00,
2013-10-13 09:28:00,58.1,57.5,30.15,NE,56,1.0,3.0,98,0.00,,,0.00,Wunderground v.1.15,2013-10-13 13:28:00,
2013-10-13 09:29:00,58.2,57.6,30.15,NE,56,1.0,3.0,98,0.00,,,0.00,Wunderground v.1.15,2013-10-13 13:29:00,
2013-10-13 09:31:00,58.3,57.7,30.15,ENE,57,0.0,1.0,98,0.00,,,0.00,Wunderground v.1.15,2013-10-13 13:31:00,
2013-10-13 09:33:00,58.4,57.8,30.15,ENE,57,1.0,2.0,98,0.00,,,0.00,Wunderground v.1.15,2013-10-13 13:33:00,
2013-10-13 09:34:00,58.6,58.0,30.15,ENE,57,0.0,2.0,98,0.00,,,0.00,Wunderground v.1.15,2013-10-13 13:34:00,
2013-10-13 09:36:00,58.9,58.3,30.15,ENE,57,0.0,2.0,98,0.00,,,0.00,Wunderground v.1.15,2013-10-13 13:36:00,
2013-10-13 09:38:00,59.0,58.4,30.16,ENE,57,0.0,2.0,98,0.00,,,0.00,Wunderground v.1.15,2013-10-13 13:38:00,
2013-10-13 09:39:00,59.0,58.4,30.16,NE,56,0.0,2.0,98,0.00,,,0.00,Wunderground v.1.15,2013-10-13 13:39:00,
2013-10-13 09:41:00,59.1,58.5,30.16,NE,56,0.0,1.0,98,0.00,,,0.00,Wunderground v.1.15,2013-10-13 13:41:00,
2013-10-13 09:43:00,59.5,58.9,30.16,ENE,57,0.0,1.0,98,0.00,,,0.00,Wunderground v.1.15,2013-10-13 13:43:00,
2013-10-13 09:44:00,59.7,59.1,30.16,NE,56,1.0,2.0,98,0.00,,,0.00,Wunderground v.1.15,2013-10-13 13:44:00,
2013-10-13 09:45:00,59.8,59.2,30.16,ENE,57,0.0,2.0,98,0.00,,,0.00,Wunderground v.1.15,2013-10-13 13:45:00,
2013-10-13 09:46:00,59.9,59.3,30.16,ENE,57,0.0,2.0,98,0.00,,,0.00,Wunderground v.1.15,2013-10-13 13:46:00,
2013-10-13 09:48:00,60.3,59.7,30.16,NE,56,0.0,2.0,98,0.00,,,0.00,Wunderground v.1.15,2013-10-13 13:48:00,
2013-10-13 09:50:00,60.4,59.8,30.16,ENE,57,0.0,2.0,98,0.00,,,0.00,Wunderground v.1.15,2013-10-13 13:50:00,
2013-10-13 09:51:00,60.4,59.8,30.16,NE,56,1.0,2.0,98,0.00,,,0.00,Wunderground v.1.15,2013-10-13 13:51:00,
2013-10-13 09:53:00,60.6,60.0,30.16,ENE,57,1.0,2.0,98,0.00,,,0.00,Wunderground v.1.15,2013-10-13 13:53:00,
2013-10-13 09:54:00,60.6,60.0,30.16,ENE,57,0.0,2.0,98,0.00,,,0.00,Wunderground v.1.15,2013-10-13 13:54:00,
2013-10-13 09:55:00,60.7,60.1,30.16,NE,56,0.0,2.0,98,0.00,,,0.00,Wunderground v.1.15,2013-10-13 13:55:00,
2013-10-13 09:56:00,60.7,60.1,30.16,ENE,57,0.0,2.0,98,0.00,,,0.00,Wunderground v.1.15,2013-10-13 13:56:00,
2013-10-13 09:59:00,61.0,60.4,30.16,NE,56,0.0,2.0,98,0.00,,,0.00,Wunderground v.1.15,2013-10-13 13:59:00,
2013-10-13 10:00:00,61.1,60.5,30.16,ENE,57,2.0,2.0,98,0.00,,,0.00,Wunderground v.1.15,2013-10-13 14:00:00,
2013-10-13 10:01:00,61.2,60.6,30.16,NE,56,1.0,2.0,98,0.00,,,0.00,Wunderground v.1.15,2013-10-13 14:01:00,
2013-10-13 10:02:00,61.2,60.6,30.16,ENE,57,0.0,2.0,98,0.00,,,0.00,Wunderground v.1.15,2013-10-13 14:02:00,
2013-10-13 10:04:00,61.4,60.5,30.16,NE,56,0.0,2.0,97,0.00,,,0.00,Wunderground v.1.15,2013-10-13 14:04:00,
2013-10-13 10:05:00,61.5,60.6,30.16,NE,56,0.0,2.0,97,0.00,,,0.00,Wunderground v.1.15,2013-10-13 14:05:00,
2013-10-13 10:06:00,61.6,60.7,30.16,NE,56,0.0,2.0,97,0.00,,,0.00,Wunderground v.1.15,2013-10-13 14:06:00,
2013-10-13 10:07:00,61.9,61.0,30.16,NE,56,0.0,2.0,97,0.00,,,0.00,Wunderground v.1.15,2013-10-13 14:07:00,
2013-10-13 10:09:00,62.1,60.9,30.16,NE,56,0.0,2.0,96,0.00,,,0.00,Wunderground v.1.15,2013-10-13 14:09:00,
2013-10-13 10:10:00,62.3,61.1,30.16,NE,56,1.0,1.0,96,0.00,,,0.00,Wunderground v.1.15,2013-10-13 14:10:00,
2013-10-13 10:11:00,62.5,61.3,30.16,NE,56,1.0,1.0,96,0.00,,,0.00,Wunderground v.1.15,2013-10-13 14:11:00,
2013-10-13 10:12:00,62.6,61.4,30.16,ENE,57,0.0,1.0,96,0.00,,,0.00,Wunderground v.1.15,2013-10-13 14:12:00,
2013-10-13 10:13:00,62.8,61.6,30.16,ENE,57,0.0,1.0,96,0.00,,,0.00,Wunderground v.1.15,2013-10-13 14:13:00,
2013-10-13 10:14:00,63.0,61.5,30.16,NE,56,0.0,1.0,95,0.00,,,0.00,Wunderground v.1.15,2013-10-13 14:14:00,
2013-10-13 10:15:00,63.1,61.6,30.16,NE,56,0.0,1.0,95,0.00,,,0.00,Wunderground v.1.15,2013-10-13 14:15:00,
2013-10-13 10:16:00,63.3,61.8,30.16,NE,56,0.0,1.0,95,0.00,,,0.00,Wunderground v.1.15,2013-10-13 14:16:00,
2013-10-13 10:17:00,63.4,61.9,30.16,ENE,57,0.0,1.0,95,0.00,,,0.00,Wunderground v.1.15,2013-10-13 14:17:00,
2013-10-13 10:19:00,63.7,61.6,30.16,ENE,57,0.0,1.0,93,0.00,,,0.00,Wunderground v.1.15,2013-10-13 14:19:00,
2013-10-13 10:21:00,63.9,62.1,30.16,NE,56,0.0,0.0,94,0.00,,,0.00,Wunderground v.1.15,2013-10-13 14:21:00,
2013-10-13 10:22:00,64.1,62.0,30.16,ENE,57,0.0,0.0,93,0.00,,,0.00,Wunderground v.1.15,2013-10-13 14:22:00,
2013-10-13 10:24:00,64.4,62.0,30.16,NE,56,0.0,1.0,92,0.00,,,0.00,Wunderground v.1.15,2013-10-13 14:24:00,
2013-10-13 10:26:00,64.7,62.6,30.15,ENE,57,0.0,1.0,93,0.00,,,0.00,Wunderground v.1.15,2013-10-13 14:26:00,
2013-10-13 10:27:00,64.8,62.7,30.16,ENE,57,0.0,1.0,93,0.00,,,0.00,Wunderground v.1.15,2013-10-13 14:27:00,
2013-10-13 10:30:00,65.3,62.6,30.16,ENE,57,0.0,1.0,91,0.00,,,0.00,Wunderground v.1.15,2013-10-13 14:30:00,
2013-10-13 10:32:00,65.5,62.5,30.16,NE,56,2.0,2.0,90,0.00,,,0.00,Wunderground v.1.15,2013-10-13 14:32:00,
2013-10-13 10:33:00,65.6,62.3,30.16,NE,56,0.0,2.0,89,0.00,,,0.00,Wunderground v.1.15,2013-10-13 14:33:00,
2013-10-13 10:35:00,65.8,62.5,30.16,ENE,57,2.0,3.0,89,0.00,,,0.00,Wunderground v.1.15,2013-10-13 14:35:00,
2013-10-13 10:37:00,66.1,62.8,30.16,ENE,57,0.0,3.0,89,0.00,,,0.00,Wunderground v.1.15,2013-10-13 14:37:00,
2013-10-13 10:38:00,66.1,62.8,30.16,ENE,57,0.0,3.0,89,0.00,,,0.00,Wunderground v.1.15,2013-10-13 14:38:00,
2013-10-13 10:40:00,66.4,62.4,30.16,ENE,57,0.0,1.0,87,0.00,,,0.00,Wunderground v.1.15,2013-10-13 14:40:00,
2013-10-13 10:42:00,66.6,62.3,30.16,ENE,57,1.0,2.0,86,0.00,,,0.00,Wunderground v.1.15,2013-10-13 14:42:00,
2013-10-13 10:43:00,66.6,62.3,30.16,ENE,57,1.0,2.0,86,0.00,,,0.00,Wunderground v.1.15,2013-10-13 14:43:00,
2013-10-13 10:44:00,66.6,62.3,30.16,NE,56,0.0,2.0,86,0.00,,,0.00,Wunderground v.1.15,2013-10-13 14:44:00,
2013-10-13 10:45:00,66.8,62.8,30.17,NE,56,0.0,2.0,87,0.00,,,0.00,Wunderground v.1.15,2013-10-13 14:45:00,
2013-10-13 10:47:00,67.1,62.8,30.17,NE,56,1.0,2.0,86,0.00,,,0.00,Wunderground v.1.15,2013-10-13 14:47:00,
2013-10-13 10:48:00,67.1,62.8,30.17,ENE,57,0.0,2.0,86,0.00,,,0.00,Wunderground v.1.15,2013-10-13 14:48:00,
2013-10-13 10:49:00,67.4,63.1,30.16,NE,56,0.0,2.0,86,0.00,,,0.00,Wunderground v.1.15,2013-10-13 14:49:00,
2013-10-13 10:51:00,67.7,62.7,30.16,NE,56,0.0,1.0,84,0.00,,,0.00,Wunderground v.1.15,2013-10-13 14:51:00,
2013-10-13 10:53:00,68.1,63.8,30.16,ENE,57,0.0,1.0,86,0.00,,,0.00,Wunderground v.1.15,2013-10-13 14:53:00,
2013-10-13 10:54:00,68.4,63.4,30.16,NE,56,3.0,3.0,84,0.00,,,0.00,Wunderground v.1.15,2013-10-13 14:54:00,
2013-10-13 10:56:00,68.6,63.2,30.16,ENE,57,3.0,4.0,83,0.00,,,0.00,Wunderground v.1.15,2013-10-13 14:56:00,
2013-10-13 10:57:00,68.7,63.3,30.16,NE,56,2.0,4.0,83,0.00,,,0.00,Wunderground v.1.15,2013-10-13 14:57:00,
2013-10-13 10:58:00,68.9,63.5,30.16,NE,56,0.0,4.0,83,0.00,,,0.00,Wunderground v.1.15,2013-10-13 14:58:00,
2013-10-13 11:00:00,69.2,63.8,30.17,ENE,57,1.0,1.0,83,0.00,,,0.00,Wunderground v.1.15,2013-10-13 15:00:00,
2013-10-13 11:02:00,69.4,63.0,30.16,NE,56,0.0,1.0,80,0.00,,,0.00,Wunderground v.1.15,2013-10-13 15:02:00,
2013-10-13 11:03:00,69.5,63.4,30.17,ENE,57,0.0,1.0,81,0.00,,,0.00,Wunderground v.1.15,2013-10-13 15:03:00,
2013-10-13 11:04:00,69.7,63.6,30.17,NE,56,0.0,1.0,81,0.00,,,0.00,Wunderground v.1.15,2013-10-13 15:04:00,
2013-10-13 11:05:00,69.9,63.8,30.17,ENE,57,0.0,2.0,81,0.00,,,0.00,Wunderground v.1.15,2013-10-13 15:05:00,
2013-10-13 11:07:00,70.3,64.2,30.17,NE,56,0.0,2.0,81,0.00,,,0.00,Wunderground v.1.15,2013-10-13 15:07:00,
2013-10-13 11:08:00,70.5,63.7,30.17,ENE,57,0.0,2.0,79,0.00,,,0.00,Wunderground v.1.15,2013-10-13 15:08:00,
2013-10-13 11:09:00,70.7,63.9,30.17,ENE,57,0.0,2.0,79,0.00,,,0.00,Wunderground v.1.15,2013-10-13 15:09:00,
2013-10-13 11:11:00,70.9,63.3,30.17,ENE,57,1.0,3.0,77,0.00,,,0.00,Wunderground v.1.15,2013-10-13 15:11:00,
2013-10-13 11:12:00,71.0,63.4,30.17,ENE,57,2.0,3.0,77,0.00,,,0.00,Wunderground v.1.15,2013-10-13 15:12:00,
2013-10-13 11:13:00,71.0,63.4,30.17,ENE,57,2.0,3.0,77,0.00,,,0.00,Wunderground v.1.15,2013-10-13 15:13:00,
2013-10-13 11:14:00,71.2,63.6,30.17,ENE,57,1.0,3.0,77,0.00,,,0.00,Wunderground v.1.15,2013-10-13 15:14:00,
2013-10-13 11:15:00,71.2,63.6,30.17,NE,56,1.0,3.0,77,0.00,,,0.00,Wunderground v.1.15,2013-10-13 15:15:00,
2013-10-13 11:16:00,71.3,63.0,30.17,NE,56,0.0,3.0,75,0.00,,,0.00,Wunderground v.1.15,2013-10-13 15:16:00,
2013-10-13 11:17:00,71.3,63.0,30.17,ENE,57,0.0,3.0,75,0.00,,,0.00,Wunderground v.1.15,2013-10-13 15:17:00,
2013-10-13 11:18:00,71.3,63.0,30.17,ENE,57,0.0,3.0,75,0.00,,,0.00,Wunderground v.1.15,2013-10-13 15:18:00,
2013-10-13 11:20:00,71.6,63.3,30.17,NE,56,2.0,2.0,75,0.00,,,0.00,Wunderground v.1.15,2013-10-13 15:20:00,
2013-10-13 11:21:00,71.6,63.6,30.16,ENE,57,2.0,2.0,76,0.00,,,0.00,Wunderground v.1.15,2013-10-13 15:21:00,
2013-10-13 11:22:00,71.7,63.0,30.17,ENE,57,0.0,3.0,74,0.00,,,0.00,Wunderground v.1.15,2013-10-13 15:22:00,
2013-10-13 11:23:00,71.8,63.8,30.16,NE,56,0.0,3.0,76,0.00,,,0.00,Wunderground v.1.15,2013-10-13 15:23:00,
2013-10-13 11:24:00,71.9,63.9,30.16,ENE,57,2.0,3.0,76,0.00,,,0.00,Wunderground v.1.15,2013-10-13 15:24:00,
2013-10-13 11:25:00,71.9,63.9,30.16,NE,56,2.0,3.0,76,0.00,,,0.00,Wunderground v.1.15,2013-10-13 15:25:00,
2013-10-13 11:26:00,72.1,63.7,30.16,ENE,57,1.0,3.0,75,0.00,,,0.00,Wunderground v.1.15,2013-10-13 15:26:00,
2013-10-13 11:27:00,72.1,63.4,30.16,ENE,57,2.0,3.0,74,0.00,,,0.00,Wunderground v.1.15,2013-10-13 15:27:00,
2013-10-13 11:29:00,72.2,63.8,30.16,ENE,57,1.0,3.0,75,0.00,,,0.00,Wunderground v.1.15,2013-10-13 15:29:00,
2013-10-13 11:30:00,72.3,63.9,30.16,ENE,57,0.0,1.0,75,0.00,,,0.00,Wunderground v.1.15,2013-10-13 15:30:00,
2013-10-13 11:31:00,72.5,63.7,30.16,ENE,57,1.0,1.0,74,0.00,,,0.00,Wunderground v.1.15,2013-10-13 15:31:00,
2013-10-13 11:33:00,72.6,63.8,30.17,ENE,57,1.0,1.0,74,0.00,,,0.00,Wunderground v.1.15,2013-10-13 15:33:00,
2013-10-13 11:35:00,72.9,63.7,30.17,ENE,57,0.0,3.0,73,0.00,,,0.00,Wunderground v.1.15,2013-10-13 15:35:00,
2013-10-13 11:36:00,73.0,63.8,30.16,ENE,57,0.0,3.0,73,0.00,,,0.00,Wunderground v.1.15,2013-10-13 15:36:00,
2013-10-13 11:37:00,73.1,64.7,30.16,ENE,57,0.0,3.0,75,0.00,,,0.00,Wunderground v.1.15,2013-10-13 15:37:00,
2013-10-13 11:39:00,73.2,64.0,30.16,NE,56,3.0,5.0,73,0.00,,,0.00,Wunderground v.1.15,2013-10-13 15:39:00,
2013-10-13 11:40:00,73.4,63.8,30.17,NE,56,1.0,2.0,72,0.00,,,0.00,Wunderground v.1.15,2013-10-13 15:40:00,
2013-10-13 11:41:00,73.4,63.8,30.17,ENE,57,1.0,3.0,72,0.00,,,0.00,Wunderground v.1.15,2013-10-13 15:41:00,
2013-10-13 11:42:00,73.5,64.7,30.17,NE,56,0.0,3.0,74,0.00,,,0.00,Wunderground v.1.15,2013-10-13 15:42:00,
2013-10-13 11:44:00,73.7,64.5,30.16,NE,56,1.0,3.0,73,0.00,,,0.00,Wunderground v.1.15,2013-10-13 15:44:00,
2013-10-13 11:45:00,73.9,64.7,30.16,ENE,57,1.0,3.0,73,0.00,,,0.00,Wunderground v.1.15,2013-10-13 15:45:00,
2013-10-13 11:46:00,74.0,65.2,30.16,ENE,57,1.0,3.0,74,0.00,,,0.00,Wunderground v.1.15,2013-10-13 15:46:00,
2013-10-13 11:48:00,74.1,64.9,30.16,ENE,57,1.0,3.0,73,0.00,,,0.00,Wunderground v.1.15,2013-10-13 15:48:00,
2013-10-13 11:49:00,74.2,65.0,30.16,ENE,57,2.0,3.0,73,0.00,,,0.00,Wunderground v.1.15,2013-10-13 15:49:00,
2013-10-13 11:51:00,74.4,64.8,30.16,ENE,57,1.0,2.0,72,0.00,,,0.00,Wunderground v.1.15,2013-10-13 15:51:00,
2013-10-13 11:52:00,74.5,64.9,30.16,East,80,4.0,4.0,72,0.00,,,0.00,Wunderground v.1.15,2013-10-13 15:52:00,
2013-10-13 11:53:00,74.5,65.3,30.16,East,86,0.0,5.0,73,0.00,,,0.00,Wunderground v.1.15,2013-10-13 15:53:00,
2013-10-13 11:55:00,74.6,64.6,30.16,East,86,1.0,5.0,71,0.00,,,0.00,Wunderground v.1.15,2013-10-13 15:55:00,
2013-10-13 11:56:00,74.7,64.7,30.16,East,86,0.0,5.0,71,0.00,,,0.00,Wunderground v.1.15,2013-10-13 15:56:00,
2013-10-13 11:58:00,74.8,64.4,30.16,East,86,0.0,5.0,70,0.00,,,0.00,Wunderground v.1.15,2013-10-13 15:58:00,
2013-10-13 11:59:00,74.9,64.5,30.16,East,86,1.0,5.0,70,0.00,,,0.00,Wunderground v.1.15,2013-10-13 15:59:00,
2013-10-13 12:00:00,75.0,64.5,30.16,East,86,1.0,5.0,70,0.00,,,0.00,Wunderground v.1.15,2013-10-13 16:00:00,
2013-10-13 12:01:00,75.1,64.6,30.16,East,86,0.0,1.0,70,0.00,,,0.00,Wunderground v.1.15,2013-10-13 16:01:00,
2013-10-13 12:02:00,75.1,65.1,30.16,East,86,1.0,1.0,71,0.00,,,0.00,Wunderground v.1.15,2013-10-13 16:02:00,
2013-10-13 12:03:00,75.3,65.6,30.16,East,86,1.0,2.0,72,0.00,,,0.00,Wunderground v.1.15,2013-10-13 16:03:00,
2013-10-13 12:04:00,75.4,65.3,30.16,East,86,0.0,2.0,71,0.00,,,0.00,Wunderground v.1.15,2013-10-13 16:04:00,
2013-10-13 12:05:00,75.4,65.7,30.16,East,86,2.0,3.0,72,0.00,,,0.00,Wunderground v.1.15,2013-10-13 16:05:00,
2013-10-13 12:06:00,75.5,65.0,30.16,East,86,0.0,3.0,70,0.00,,,0.00,Wunderground v.1.15,2013-10-13 16:06:00,
2013-10-13 12:07:00,75.5,65.0,30.15,East,86,2.0,3.0,70,0.00,,,0.00,Wunderground v.1.15,2013-10-13 16:07:00,
2013-10-13 12:08:00,75.5,64.2,30.16,East,86,2.0,3.0,68,0.00,,,0.00,Wunderground v.1.15,2013-10-13 16:08:00,
2013-10-13 12:09:00,75.5,65.0,30.16,East,86,1.0,3.0,70,0.00,,,0.00,Wunderground v.1.15,2013-10-13 16:09:00,
2013-10-13 12:10:00,75.5,65.8,30.16,East,86,2.0,3.0,72,0.00,,,0.00,Wunderground v.1.15,2013-10-13 16:10:00,
2013-10-13 12:11:00,75.4,64.5,30.16,ESE,109,2.0,6.0,69,0.00,,,0.00,Wunderground v.1.15,2013-10-13 16:11:00,
2013-10-13 12:13:00,75.2,63.9,30.16,ESE,109,1.0,6.0,68,0.00,,,0.00,Wunderground v.1.15,2013-10-13 16:13:00,
2013-10-13 12:14:00,75.1,64.2,30.16,ESE,110,4.0,6.0,69,0.00,,,0.00,Wunderground v.1.15,2013-10-13 16:14:00,
2013-10-13 12:15:00,75.1,64.2,30.16,ESE,110,3.0,6.0,69,0.00,,,0.00,Wunderground v.1.15,2013-10-13 16:15:00,
2013-10-13 12:16:00,74.9,64.0,30.16,ESE,110,0.0,6.0,69,0.00,,,0.00,Wunderground v.1.15,2013-10-13 16:16:00,
2013-10-13 12:17:00,74.9,64.0,30.16,ESE,111,0.0,6.0,69,0.00,,,0.00,Wunderground v.1.15,2013-10-13 16:17:00,
2013-10-13 12:18:00,74.9,64.5,30.16,ESE,111,1.0,6.0,70,0.00,,,0.00,Wunderground v.1.15,2013-10-13 16:18:00,
2013-10-13 12:19:00,74.9,64.0,30.16,ESE,110,0.0,6.0,69,0.00,,,0.00,Wunderground v.1.15,2013-10-13 16:19:00,
2013-10-13 12:20:00,74.9,64.5,30.16,ESE,111,0.0,6.0,70,0.00,,,0.00,Wunderground v.1.15,2013-10-13 16:20:00,
2013-10-13 12:21:00,74.9,64.9,30.16,ESE,111,3.0,4.0,71,0.00,,,0.00,Wunderground v.1.15,2013-10-13 16:21:00,
2013-10-13 12:22:00,75.0,64.5,30.16,ESE,111,0.0,4.0,70,0.00,,,0.00,Wunderground v.1.15,2013-10-13 16:22:00,
2013-10-13 12:23:00,75.2,65.1,30.16,ESE,110,1.0,4.0,71,0.00,,,0.00,Wunderground v.1.15,2013-10-13 16:23:00,
2013-10-13 12:24:00,75.3,65.6,30.16,ESE,110,1.0,4.0,72,0.00,,,0.00,Wunderground v.1.15,2013-10-13 16:24:00,
2013-10-13 12:25:00,75.4,65.7,30.16,ESE,111,1.0,4.0,72,0.00,,,0.00,Wunderground v.1.15,2013-10-13 16:25:00,
2013-10-13 12:26:00,75.6,65.1,30.16,ESE,111,1.0,4.0,70,0.00,,,0.00,Wunderground v.1.15,2013-10-13 16:26:00,
2013-10-13 12:28:00,75.8,64.1,30.16,ESE,110,2.0,4.0,67,0.00,,,0.00,Wunderground v.1.15,2013-10-13 16:28:00,
2013-10-13 12:29:00,76.0,64.7,30.16,ESE,110,1.0,4.0,68,0.00,,,0.00,Wunderground v.1.15,2013-10-13 16:29:00,
2013-10-13 12:30:00,76.0,64.7,30.16,ESE,111,0.0,4.0,68,0.00,,,0.00,Wunderground v.1.15,2013-10-13 16:30:00,
2013-10-13 12:31:00,76.2,65.3,30.16,ESE,110,1.0,3.0,69,0.00,,,0.00,Wunderground v.1.15,2013-10-13 16:31:00,
2013-10-13 12:33:00,76.5,64.7,30.16,ESE,113,4.0,4.0,67,0.00,,,0.00,Wunderground v.1.15,2013-10-13 16:33:00,
2013-10-13 12:34:00,76.5,63.9,30.16,East,87,2.0,4.0,65,0.00,,,0.00,Wunderground v.1.15,2013-10-13 16:34:00,
2013-10-13 12:35:00,76.5,63.9,30.16,East,87,1.0,4.0,65,0.00,,,0.00,Wunderground v.1.15,2013-10-13 16:35:00,
2013-10-13 12:36:00,76.6,63.5,30.16,East,86,3.0,5.0,64,0.00,,,0.00,Wunderground v.1.15,2013-10-13 16:36:00,
2013-10-13 12:38:00,76.6,64.8,30.16,East,86,2.0,5.0,67,0.00,,,0.00,Wunderground v.1.15,2013-10-13 16:38:00,
2013-10-13 12:39:00,76.6,63.5,30.16,East,86,1.0,5.0,64,0.00,,,0.00,Wunderground v.1.15,2013-10-13 16:39:00,
2013-10-13 12:40:00,76.6,64.0,30.16,East,86,2.0,2.0,65,0.00,,,0.00,Wunderground v.1.15,2013-10-13 16:40:00,
2013-10-13 12:41:00,76.6,64.0,30.16,East,86,2.0,2.0,65,0.00,,,0.00,Wunderground v.1.15,2013-10-13 16:41:00,
2013-10-13 12:42:00,76.6,64.0,30.16,East,86,3.0,4.0,65,0.00,,,0.00,Wunderground v.1.15,2013-10-13 16:42:00,
2013-10-13 12:43:00,76.7,64.9,30.15,East,86,2.0,4.0,67,0.00,,,0.00,Wunderground v.1.15,2013-10-13 16:43:00,
2013-10-13 12:45:00,76.7,64.0,30.15,East,86,1.0,4.0,65,0.00,,,0.00,Wunderground v.1.15,2013-10-13 16:45:00,
2013-10-13 12:46:00,76.8,64.1,30.16,East,86,5.0,5.0,65,0.00,,,0.00,Wunderground v.1.15,2013-10-13 16:46:00,
2013-10-13 12:48:00,76.9,65.1,30.15,East,86,3.0,5.0,67,0.00,,,0.00,Wunderground v.1.15,2013-10-13 16:48:00,
2013-10-13 12:49:00,76.9,63.8,30.15,East,82,4.0,6.0,64,0.00,,,0.00,Wunderground v.1.15,2013-10-13 16:49:00,
2013-10-13 12:50:00,77.0,65.2,30.15,East,82,3.0,3.0,67,0.00,,,0.00,Wunderground v.1.15,2013-10-13 16:50:00,
2013-10-13 12:51:00,77.0,65.2,30.15,East,82,1.0,3.0,67,0.00,,,0.00,Wunderground v.1.15,2013-10-13 16:51:00,
2013-10-13 12:53:00,77.2,65.0,30.15,East,82,1.0,3.0,66,0.00,,,0.00,Wunderground v.1.15,2013-10-13 16:53:00,
2013-10-13 12:55:00,77.3,64.6,30.15,East,82,0.0,3.0,65,0.00,,,0.00,Wunderground v.1.15,2013-10-13 16:55:00,
2013-10-13 12:56:00,77.3,64.2,30.15,ENE,78,3.0,3.0,64,0.00,,,0.00,Wunderground v.1.15,2013-10-13 16:56:00,
2013-10-13 12:58:00,77.4,65.1,30.15,ENE,78,0.0,5.0,66,0.00,,,0.00,Wunderground v.1.15,2013-10-13 16:58:00,
2013-10-13 12:59:00,77.4,65.1,30.15,ENE,78,2.0,5.0,66,0.00,,,0.00,Wunderground v.1.15,2013-10-13 16:59:00,
2013-10-13 13:00:00,77.3,63.7,30.15,ENE,78,2.0,3.0,63,0.00,,,0.00,Wunderground v.1.15,2013-10-13 17:00:00,
2013-10-13 13:01:00,77.3,63.7,30.15,ENE,78,1.0,3.0,63,0.00,,,0.00,Wunderground v.1.15,2013-10-13 17:01:00,
2013-10-13 13:03:00,77.3,63.7,30.15,ENE,78,3.0,3.0,63,0.00,,,0.00,Wunderground v.1.15,2013-10-13 17:03:00,
2013-10-13 13:04:00,77.3,63.3,30.15,ENE,78,0.0,3.0,62,0.00,,,0.00,Wunderground v.1.15,2013-10-13 17:04:00,
2013-10-13 13:06:00,77.4,63.4,30.15,NE,51,4.0,6.0,62,0.00,,,0.00,Wunderground v.1.15,2013-10-13 17:06:00,
2013-10-13 13:07:00,77.3,62.8,30.15,East,86,2.0,6.0,61,0.00,,,0.00,Wunderground v.1.15,2013-10-13 17:07:00,
2013-10-13 13:08:00,77.2,63.2,30.15,East,88,3.0,6.0,62,0.00,,,0.00,Wunderground v.1.15,2013-10-13 17:08:00,
2013-10-13 13:09:00,77.0,63.0,30.15,East,88,3.0,6.0,62,0.00,,,0.00,Wunderground v.1.15,2013-10-13 17:09:00,
2013-10-13 13:11:00,76.6,62.6,30.15,East,86,4.0,5.0,62,0.00,,,0.00,Wunderground v.1.15,2013-10-13 17:11:00,
2013-10-13 13:12:00,76.5,62.5,30.15,ENE,76,4.0,6.0,62,0.00,,,0.00,Wunderground v.1.15,2013-10-13 17:12:00,
2013-10-13 13:13:00,76.4,62.9,30.15,ENE,64,6.0,6.0,63,0.00,,,0.00,Wunderground v.1.15,2013-10-13 17:13:00,
2013-10-13 13:14:00,76.2,61.3,30.15,NNE,30,0.0,9.0,60,0.00,,,0.01,Wunderground v.1.15,2013-10-13 17:14:00,
2013-10-13 13:17:00,76.0,62.9,30.15,NE,40,2.0,9.0,64,0.00,,,0.01,Wunderground v.1.15,2013-10-13 17:17:00,
2013-10-13 13:18:00,75.9,63.3,30.15,NE,40,1.0,9.0,65,0.00,,,0.01,Wunderground v.1.15,2013-10-13 17:18:00,
2013-10-13 13:19:00,75.9,63.7,30.15,NE,40,0.0,9.0,66,0.00,,,0.01,Wunderground v.1.15,2013-10-13 17:19:00,
2013-10-13 13:22:00,76.1,64.8,30.15,NE,40,2.0,2.0,68,0.00,,,0.01,Wunderground v.1.15,2013-10-13 17:22:00,
2013-10-13 13:23:00,76.1,62.6,30.15,NE,41,0.0,4.0,63,0.00,,,0.01,Wunderground v.1.15,2013-10-13 17:23:00,
2013-10-13 13:24:00,76.2,62.2,30.15,NE,44,3.0,4.0,62,0.00,,,0.01,Wunderground v.1.15,2013-10-13 17:24:00,
2013-10-13 13:25:00,76.3,62.3,30.15,ENE,58,4.0,4.0,62,0.00,,,0.01,Wunderground v.1.15,2013-10-13 17:25:00,
2013-10-13 13:27:00,76.6,62.6,30.15,East,88,5.0,5.0,62,0.00,,,0.01,Wunderground v.1.15,2013-10-13 17:27:00,
2013-10-13 13:28:00,76.9,62.4,30.15,East,82,2.0,7.0,61,0.00,,,0.01,Wunderground v.1.15,2013-10-13 17:28:00,
2013-10-13 13:29:00,77.0,62.0,30.15,NNE,25,6.0,7.0,60,0.00,,,0.01,Wunderground v.1.15,2013-10-13 17:29:00,
2013-10-13 13:30:00,77.1,62.1,30.15,NE,34,0.0,3.0,60,0.00,,,0.01,Wunderground v.1.15,2013-10-13 17:30:00,
2013-10-13 13:31:00,77.1,63.1,30.15,North,11,4.0,4.0,62,0.00,,,0.01,Wunderground v.1.15,2013-10-13 17:31:00,
2013-10-13 13:32:00,77.1,62.6,30.15,NE,49,5.0,5.0,61,0.00,,,0.01,Wunderground v.1.15,2013-10-13 17:32:00,
2013-10-13 13:34:00,77.1,62.6,30.15,NE,49,1.0,5.0,61,0.00,,,0.01,Wunderground v.1.15,2013-10-13 17:34:00,
2013-10-13 13:35:00,77.0,62.0,30.15,ENE,62,3.0,10.0,60,0.00,,,0.01,Wunderground v.1.15,2013-10-13 17:35:00,
2013-10-13 13:36:00,76.9,62.0,30.15,ENE,69,2.0,10.0,60,0.00,,,0.01,Wunderground v.1.15,2013-10-13 17:36:00,
2013-10-13 13:38:00,76.7,62.2,30.15,East,82,1.0,10.0,61,0.00,,,0.01,Wunderground v.1.15,2013-10-13 17:38:00,
2013-10-13 13:39:00,76.7,62.2,30.15,East,82,2.0,10.0,61,0.00,,,0.01,Wunderground v.1.15,2013-10-13 17:39:00,
2013-10-13 13:40:00,76.7,62.7,30.15,East,82,1.0,10.0,62,0.00,,,0.01,Wunderground v.1.15,2013-10-13 17:40:00,
2013-10-13 13:42:00,76.9,63.3,30.14,ENE,72,2.0,7.0,63,0.00,,,0.01,Wunderground v.1.15,2013-10-13 17:42:00,
2013-10-13 13:43:00,77.2,63.6,30.14,ENE,72,1.0,7.0,63,0.00,,,0.01,Wunderground v.1.15,2013-10-13 17:43:00,
2013-10-13 13:44:00,77.4,63.8,30.14,ENE,72,2.0,7.0,63,0.00,,,0.01,Wunderground v.1.15,2013-10-13 17:44:00,
2013-10-13 13:45:00,77.6,64.5,30.14,ENE,72,2.0,7.0,64,0.00,,,0.01,Wunderground v.1.15,2013-10-13 17:45:00,
2013-10-13 13:46:00,77.7,64.1,30.14,ENE,72,1.0,7.0,63,0.00,,,0.01,Wunderground v.1.15,2013-10-13 17:46:00,
2013-10-13 13:48:00,78.0,64.4,30.14,ENE,72,1.0,7.0,63,0.00,,,0.01,Wunderground v.1.15,2013-10-13 17:48:00,
2013-10-13 13:49:00,78.2,64.6,30.14,ENE,78,2.0,7.0,63,0.00,,,0.01,Wunderground v.1.15,2013-10-13 17:49:00,
2013-10-13 13:50:00,78.2,63.6,30.14,ENE,78,1.0,1.0,61,0.00,,,0.01,Wunderground v.1.15,2013-10-13 17:50:00,
2013-10-13 13:51:00,78.3,63.7,30.14,ENE,78,1.0,1.0,61,0.00,,,0.01,Wunderground v.1.15,2013-10-13 17:51:00,
2013-10-13 13:54:00,78.2,64.1,30.14,ENE,78,0.0,1.0,62,0.00,,,0.01,Wunderground v.1.15,2013-10-13 17:54:00,
2013-10-13 13:55:00,78.1,64.0,30.14,ENE,78,1.0,1.0,62,0.00,,,0.01,Wunderground v.1.15,2013-10-13 17:55:00,
2013-10-13 13:56:00,78.0,64.4,30.14,East,79,0.0,3.0,63,0.00,,,0.01,Wunderground v.1.15,2013-10-13 17:56:00,
2013-10-13 13:59:00,77.5,64.4,30.14,East,79,0.0,3.0,64,0.00,,,0.01,Wunderground v.1.15,2013-10-13 17:59:00,
2013-10-13 14:00:00,77.4,63.4,30.14,ENE,78,2.0,3.0,62,0.00,,,0.01,Wunderground v.1.15,2013-10-13 18:00:00,
2013-10-13 14:01:00,77.3,64.2,30.14,ENE,78,0.0,2.0,64,0.00,,,0.01,Wunderground v.1.15,2013-10-13 18:01:00,
2013-10-13 14:04:00,76.6,64.4,30.14,ENE,78,1.0,3.0,66,0.00,,,0.01,Wunderground v.1.15,2013-10-13 18:04:00,
2013-10-13 14:05:00,76.6,63.5,30.14,ENE,78,0.0,3.0,64,0.00,,,0.01,Wunderground v.1.15,2013-10-13 18:05:00,
2013-10-13 14:06:00,76.4,63.8,30.14,ENE,78,1.0,3.0,65,0.00,,,0.01,Wunderground v.1.15,2013-10-13 18:06:00,
2013-10-13 14:09:00,75.8,63.6,30.14,ENE,69,0.0,4.0,66,0.00,,,0.01,Wunderground v.1.15,2013-10-13 18:09:00,
2013-10-13 14:10:00,75.7,63.5,30.14,East,80,3.0,3.0,66,0.00,,,0.01,Wunderground v.1.15,2013-10-13 18:10:00,
2013-10-13 14:11:00,75.6,63.4,30.14,East,84,2.0,3.0,66,0.00,,,0.01,Wunderground v.1.15,2013-10-13 18:11:00,
2013-10-13 14:12:00,75.4,62.8,30.14,East,84,1.0,3.0,65,0.00,,,0.01,Wunderground v.1.15,2013-10-13 18:12:00,
2013-10-13 14:15:00,75.2,63.1,30.13,East,84,2.0,3.0,66,0.00,,,0.01,Wunderground v.1.15,2013-10-13 18:15:00,
2013-10-13 14:16:00,75.3,63.6,30.13,East,88,1.0,4.0,67,0.00,,,0.01,Wunderground v.1.15,2013-10-13 18:16:00,
2013-10-13 14:17:00,75.5,64.2,30.13,East,88,1.0,4.0,68,0.00,,,0.01,Wunderground v.1.15,2013-10-13 18:17:00,
2013-10-13 14:20:00,75.9,63.7,30.13,NE,36,0.0,2.0,66,0.00,,,0.01,Wunderground v.1.15,2013-10-13 18:20:00,
2013-10-13 14:21:00,76.0,63.8,30.13,NE,36,1.0,2.0,66,0.00,,,0.01,Wunderground v.1.15,2013-10-13 18:21:00,
2013-10-13 14:23:00,76.5,62.5,30.13,SE,126,2.0,5.0,62,0.00,,,0.01,Wunderground v.1.15,2013-10-13 18:23:00,
2013-10-13 14:25:00,76.9,62.0,30.13,NNE,28,4.0,7.0,60,0.00,,,0.01,Wunderground v.1.15,2013-10-13 18:25:00,
2013-10-13 14:26:00,76.9,62.0,30.13,NNE,32,10.0,10.0,60,0.00,,,0.01,Wunderground v.1.15,2013-10-13 18:26:00,
2013-10-13 14:27:00,76.9,62.0,30.12,NE,42,3.0,10.0,60,0.00,,,0.01,Wunderground v.1.15,2013-10-13 18:27:00,
2013-10-13 14:30:00,77.1,62.6,30.12,NNW,344,9.0,9.0,61,0.00,,,0.01,Wunderground v.1.15,2013-10-13 18:30:00,
2013-10-13 14:31:00,77.1,61.7,30.13,NNE,13,4.0,9.0,59,0.00,,,0.01,Wunderground v.1.15,2013-10-13 18:31:00,
2013-10-13 14:32:00,77.1,62.1,30.13,NNE,26,4.0,9.0,60,0.00,,,0.01,Wunderground v.1.15,2013-10-13 18:32:00,
2013-10-13 14:35:00,76.9,62.4,30.12,NNE,21,3.0,9.0,61,0.00,,,0.01,Wunderground v.1.15,2013-10-13 18:35:00,
2013-10-13 14:36:00,76.8,61.9,30.12,ESE,109,2.0,9.0,60,0.00,,,0.01,Wunderground v.1.15,2013-10-13 18:36:00,
2013-10-13 14:37:00,76.8,62.3,30.12,NE,44,1.0,9.0,61,0.00,,,0.01,Wunderground v.1.15,2013-10-13 18:37:00,
2013-10-13 14:38:00,76.7,62.7,30.12,East,99,1.0,9.0,62,0.00,,,0.01,Wunderground v.1.15,2013-10-13 18:38:00,
2013-10-13 14:41:00,76.5,62.0,30.12,ESE,117,5.0,7.0,61,0.00,,,0.01,Wunderground v.1.15,2013-10-13 18:41:00,
2013-10-13 14:42:00,76.4,61.5,30.12,NE,54,2.0,7.0,60,0.00,,,0.01,Wunderground v.1.15,2013-10-13 18:42:00,
2013-10-13 14:43:00,76.3,62.3,30.12,NE,54,3.0,7.0,62,0.00,,,0.01,Wunderground v.1.15,2013-10-13 18:43:00,
2013-10-13 14:46:00,76.0,61.6,30.12,ENE,75,1.0,9.0,61,0.00,,,0.01,Wunderground v.1.15,2013-10-13 18:46:00,
2013-10-13 14:47:00,76.0,62.0,30.13,NE,41,3.0,9.0,62,0.00,,,0.01,Wunderground v.1.15,2013-10-13 18:47:00,
2013-10-13 14:48:00,76.0,62.0,30.13,ENE,71,3.0,9.0,62,0.00,,,0.01,Wunderground v.1.15,2013-10-13 18:48:00,
2013-10-13 14:51:00,75.9,62.4,30.12,ENE,57,3.0,5.0,63,0.00,,,0.01,Wunderground v.1.15,2013-10-13 18:51:00,
2013-10-13 14:52:00,75.9,62.4,30.12,ENE,57,0.0,5.0,63,0.00,,,0.01,Wunderground v.1.15,2013-10-13 18:52:00,
2013-10-13 14:53:00,75.9,63.3,30.12,ENE,57,1.0,5.0,65,0.00,,,0.01,Wunderground v.1.15,2013-10-13 18:53:00,
2013-10-13 14:54:00,75.9,62.8,30.12,ENE,62,1.0,5.0,64,0.00,,,0.01,Wunderground v.1.15,2013-10-13 18:54:00,
2013-10-13 14:57:00,75.9,64.2,30.12,ENE,58,0.0,5.0,67,0.00,,,0.01,Wunderground v.1.15,2013-10-13 18:57:00,
2013-10-13 14:58:00,75.9,63.3,30.12,NNE,18,3.0,7.0,65,0.00,,,0.01,Wunderground v.1.15,2013-10-13 18:58:00,
2013-10-13 14:59:00,76.0,64.2,30.12,NNE,19,1.0,7.0,67,0.00,,,0.01,Wunderground v.1.15,2013-10-13 18:59:00,
2013-10-13 15:00:00,76.0,62.9,30.12,NNE,17,1.0,7.0,64,0.00,,,0.01,Wunderground v.1.15,2013-10-13 19:00:00,
2013-10-13 15:02:00,76.2,63.1,30.12,NNE,20,3.0,5.0,64,0.00,,,0.01,Wunderground v.1.15,2013-10-13 19:02:00,
2013-10-13 15:03:00,76.3,63.2,30.12,East,96,2.0,5.0,64,0.00,,,0.01,Wunderground v.1.15,2013-10-13 19:03:00,
2013-10-13 15:04:00,76.3,63.2,30.12,East,95,1.0,5.0,64,0.00,,,0.01,Wunderground v.1.15,2013-10-13 19:04:00,
2013-10-13 15:05:00,76.4,63.3,30.12,East,99,0.0,5.0,64,0.00,,,0.01,Wunderground v.1.15,2013-10-13 19:05:00,
2013-10-13 15:07:00,76.7,63.6,30.11,East,96,1.0,6.0,64,0.00,,,0.01,Wunderground v.1.15,2013-10-13 19:07:00,
2013-10-13 15:08:00,76.8,63.2,30.11,NE,37,0.0,6.0,63,0.00,,,0.01,Wunderground v.1.15,2013-10-13 19:08:00,
2013-10-13 15:09:00,76.9,63.8,30.11,ENE,61,5.0,6.0,64,0.00,,,0.01,Wunderground v.1.15,2013-10-13 19:09:00,
2013-10-13 15:10:00,77.0,63.4,30.11,ENE,59,2.0,4.0,63,0.00,,,0.01,Wunderground v.1.15,2013-10-13 19:10:00,
2013-10-13 15:12:00,77.1,63.5,30.12,North,5,4.0,5.0,63,0.00,,,0.01,Wunderground v.1.15,2013-10-13 19:12:00,
2013-10-13 15:13:00,77.1,63.5,30.12,North,9,2.0,5.0,63,0.00,,,0.01,Wunderground v.1.15,2013-10-13 19:13:00,
2013-10-13 15:14:00,77.1,63.1,30.11,NE,41,2.0,5.0,62,0.00,,,0.01,Wunderground v.1.15,2013-10-13 19:14:00,
2013-10-13 15:15:00,77.0,63.0,30.11,NNE,33,3.0,5.0,62,0.00,,,0.01,Wunderground v.1.15,2013-10-13 19:15:00,
2013-10-13 15:16:00,77.0,63.0,30.11,NE,34,3.0,5.0,62,0.00,,,0.01,Wunderground v.1.15,2013-10-13 19:16:00,
2013-10-13 15:17:00,76.9,63.3,30.11,NE,36,1.0,5.0,63,0.00,,,0.01,Wunderground v.1.15,2013-10-13 19:17:00,
2013-10-13 15:19:00,76.9,63.8,30.11,East,80,1.0,5.0,64,0.00,,,0.01,Wunderground v.1.15,2013-10-13 19:19:00,
2013-10-13 15:20:00,76.7,63.2,30.11,NE,56,3.0,3.0,63,0.00,,,0.01,Wunderground v.1.15,2013-10-13 19:20:00,
2013-10-13 15:21:00,76.7,63.2,30.11,SSE,150,3.0,3.0,63,0.00,,,0.01,Wunderground v.1.15,2013-10-13 19:21:00,
2013-10-13 15:23:00,76.6,63.1,30.11,ENE,63,1.0,5.0,63,0.00,,,0.01,Wunderground v.1.15,2013-10-13 19:23:00,
2013-10-13 15:24:00,76.5,63.4,30.11,NE,42,3.0,6.0,64,0.00,,,0.01,Wunderground v.1.15,2013-10-13 19:24:00,
2013-10-13 15:25:00,76.5,63.4,30.11,East,99,4.0,6.0,64,0.00,,,0.01,Wunderground v.1.15,2013-10-13 19:25:00,
2013-10-13 15:26:00,76.5,63.4,30.11,NE,41,1.0,6.0,64,0.00,,,0.01,Wunderground v.1.15,2013-10-13 19:26:00,
2013-10-13 15:28:00,76.4,63.3,30.11,NE,55,1.0,6.0,64,0.00,,,0.01,Wunderground v.1.15,2013-10-13 19:28:00,
2013-10-13 15:30:00,76.3,63.7,30.11,East,80,2.0,2.0,65,0.00,,,0.01,Wunderground v.1.15,2013-10-13 19:30:00,
2013-10-13 15:31:00,76.2,63.6,30.11,East,82,3.0,4.0,65,0.00,,,0.01,Wunderground v.1.15,2013-10-13 19:31:00,
2013-10-13 15:32:00,76.2,63.6,30.11,East,82,1.0,4.0,65,0.00,,,0.01,Wunderground v.1.15,2013-10-13 19:32:00,
2013-10-13 15:33:00,76.1,63.5,30.11,East,84,1.0,4.0,65,0.00,,,0.01,Wunderground v.1.15,2013-10-13 19:33:00,
2013-10-13 15:35:00,76.0,63.4,30.11,ESE,115,1.0,4.0,65,0.00,,,0.01,Wunderground v.1.15,2013-10-13 19:35:00,
2013-10-13 15:37:00,75.9,63.7,30.11,SSE,165,2.0,4.0,66,0.00,,,0.01,Wunderground v.1.15,2013-10-13 19:37:00,
2013-10-13 15:38:00,75.9,63.7,30.11,SSE,164,1.0,4.0,66,0.00,,,0.01,Wunderground v.1.15,2013-10-13 19:38:00,
2013-10-13 15:41:00,75.8,64.1,30.11,SSE,156,3.0,3.0,67,0.00,,,0.01,Wunderground v.1.15,2013-10-13 19:41:00,
2013-10-13 15:43:00,75.7,63.5,30.11,SSE,159,1.0,3.0,66,0.00,,,0.01,Wunderground v.1.15,2013-10-13 19:43:00,
2013-10-13 15:44:00,75.6,63.4,30.11,SSE,148,3.0,3.0,66,0.00,,,0.01,Wunderground v.1.15,2013-10-13 19:44:00,
2013-10-13 15:46:00,75.6,63.9,30.11,North,10,0.0,5.0,67,0.00,,,0.01,Wunderground v.1.15,2013-10-13 19:46:00,
2013-10-13 15:47:00,75.5,62.9,30.11,NE,38,2.0,5.0,65,0.00,,,0.01,Wunderground v.1.15,2013-10-13 19:47:00,
2013-10-13 15:48:00,75.5,63.3,30.11,NE,38,2.0,5.0,66,0.00,,,0.01,Wunderground v.1.15,2013-10-13 19:48:00,
2013-10-13 15:49:00,75.5,63.3,30.11,NE,49,1.0,5.0,66,0.00,,,0.01,Wunderground v.1.15,2013-10-13 19:49:00,
2013-10-13 15:50:00,75.4,63.2,30.11,NE,40,1.0,5.0,66,0.00,,,0.01,Wunderground v.1.15,2013-10-13 19:50:00,
2013-10-13 15:51:00,75.4,63.2,30.11,NE,55,4.0,4.0,66,0.00,,,0.01,Wunderground v.1.15,2013-10-13 19:51:00,
2013-10-13 15:52:00,75.3,63.2,30.11,NE,54,0.0,4.0,66,0.00,,,0.01,Wunderground v.1.15,2013-10-13 19:52:00,
2013-10-13 15:53:00,75.3,63.6,30.11,NE,56,1.0,4.0,67,0.00,,,0.01,Wunderground v.1.15,2013-10-13 19:53:00,
2013-10-13 15:54:00,75.3,63.6,30.11,NE,56,2.0,4.0,67,0.00,,,0.01,Wunderground v.1.15,2013-10-13 19:54:00,
2013-10-13 15:55:00,75.3,63.6,30.11,ENE,59,2.0,4.0,67,0.00,,,0.01,Wunderground v.1.15,2013-10-13 19:55:00,
2013-10-13 15:56:00,75.3,63.6,30.11,East,96,2.0,4.0,67,0.00,,,0.01,Wunderground v.1.15,2013-10-13 19:56:00,
2013-10-13 15:57:00,75.2,63.1,30.11,SE,128,0.0,4.0,66,0.00,,,0.01,Wunderground v.1.15,2013-10-13 19:57:00,
2013-10-13 15:59:00,75.2,63.1,30.11,SE,128,1.0,4.0,66,0.00,,,0.01,Wunderground v.1.15,2013-10-13 19:59:00,
2013-10-13 16:00:00,75.2,63.1,30.11,SE,128,0.0,1.0,66,0.00,,,0.01,Wunderground v.1.15,2013-10-13 20:00:00,
2013-10-13 16:01:00,75.1,63.4,30.11,SE,124,2.0,2.0,67,0.00,,,0.01,Wunderground v.1.15,2013-10-13 20:01:00,
2013-10-13 16:02:00,75.1,63.4,30.11,SE,137,2.0,3.0,67,0.00,,,0.01,Wunderground v.1.15,2013-10-13 20:02:00,
2013-10-13 16:04:00,75.1,63.4,30.11,SE,138,0.0,3.0,67,0.00,,,0.01,Wunderground v.1.15,2013-10-13 20:04:00,
2013-10-13 16:05:00,75.1,63.8,30.11,SE,138,1.0,3.0,68,0.00,,,0.01,Wunderground v.1.15,2013-10-13 20:05:00,
2013-10-13 16:06:00,75.1,63.8,30.11,SE,137,1.0,3.0,68,0.00,,,0.01,Wunderground v.1.15,2013-10-13 20:06:00,
2013-10-13 16:07:00,75.2,64.3,30.11,SE,138,1.0,3.0,69,0.00,,,0.01,Wunderground v.1.15,2013-10-13 20:07:00,
2013-10-13 16:09:00,75.3,64.4,30.11,SE,138,2.0,3.0,69,0.00,,,0.01,Wunderground v.1.15,2013-10-13 20:09:00,
2013-10-13 16:11:00,75.5,63.8,30.11,East,90,3.0,3.0,67,0.00,,,0.01,Wunderground v.1.15,2013-10-13 20:11:00,
2013-10-13 16:12:00,75.8,64.1,30.11,East,96,1.0,3.0,67,0.00,,,0.01,Wunderground v.1.15,2013-10-13 20:12:00,
2013-10-13 16:14:00,76.0,63.8,30.11,ENE,63,1.0,5.0,66,0.00,,,0.01,Wunderground v.1.15,2013-10-13 20:14:00,
2013-10-13 16:15:00,76.2,64.0,30.11,South,169,1.0,5.0,66,0.00,,,0.01,Wunderground v.1.15,2013-10-13 20:15:00,
2013-10-13 16:16:00,76.2,64.0,30.11,South,169,2.0,5.0,66,0.00,,,0.01,Wunderground v.1.15,2013-10-13 20:16:00,
2013-10-13 16:17:00,76.3,64.5,30.11,ESE,123,1.0,5.0,67,0.00,,,0.01,Wunderground v.1.15,2013-10-13 20:17:00,
2013-10-13 16:19:00,76.4,63.8,30.11,SE,126,0.0,5.0,65,0.00,,,0.01,Wunderground v.1.15,2013-10-13 20:19:00,
2013-10-13 16:21:00,76.5,64.7,30.11,SE,127,2.0,4.0,67,0.00,,,0.01,Wunderground v.1.15,2013-10-13 20:21:00,
2013-10-13 16:23:00,76.5,63.9,30.11,ENE,74,2.0,4.0,65,0.00,,,0.01,Wunderground v.1.15,2013-10-13 20:23:00,
2013-10-13 16:24:00,76.5,64.3,30.10,ENE,74,0.0,4.0,66,0.00,,,0.01,Wunderground v.1.15,2013-10-13 20:24:00,
2013-10-13 16:26:00,76.6,64.0,30.11,NE,52,3.0,6.0,65,0.00,,,0.01,Wunderground v.1.15,2013-10-13 20:26:00,
2013-10-13 16:27:00,76.5,63.4,30.11,NE,53,1.0,6.0,64,0.00,,,0.01,Wunderground v.1.15,2013-10-13 20:27:00,
2013-10-13 16:28:00,76.5,63.4,30.11,NE,55,1.0,6.0,64,0.00,,,0.01,Wunderground v.1.15,2013-10-13 20:28:00,
2013-10-13 16:29:00,76.5,63.4,30.11,NE,55,1.0,6.0,64,0.00,,,0.01,Wunderground v.1.15,2013-10-13 20:29:00,
2013-10-13 16:31:00,76.6,65.2,30.11,NE,55,0.0,2.0,68,0.00,,,0.01,Wunderground v.1.15,2013-10-13 20:31:00,
2013-10-13 16:32:00,76.7,65.8,30.11,NE,55,1.0,2.0,69,0.00,,,0.01,Wunderground v.1.15,2013-10-13 20:32:00,
2013-10-13 16:34:00,76.7,64.0,30.10,NE,55,3.0,3.0,65,0.00,,,0.01,Wunderground v.1.15,2013-10-13 20:34:00,
2013-10-13 16:36:00,76.9,64.2,30.11,ENE,77,2.0,4.0,65,0.00,,,0.01,Wunderground v.1.15,2013-10-13 20:36:00,
2013-10-13 16:37:00,76.9,64.2,30.11,ENE,77,1.0,4.0,65,0.00,,,0.01,Wunderground v.1.15,2013-10-13 20:37:00,
2013-10-13 16:39:00,76.9,64.2,30.11,ENE,77,0.0,4.0,65,0.00,,,0.01,Wunderground v.1.15,2013-10-13 20:39:00,
2013-10-13 16:42:00,76.9,63.3,30.10,ENE,76,0.0,3.0,63,0.00,,,0.01,Wunderground v.1.15,2013-10-13 20:42:00,
2013-10-13 16:44:00,77.0,64.8,30.11,ENE,76,0.0,3.0,66,0.00,,,0.01,Wunderground v.1.15,2013-10-13 20:44:00,
2013-10-13 16:45:00,76.9,63.8,30.10,ENE,76,0.0,3.0,64,0.00,,,0.01,Wunderground v.1.15,2013-10-13 20:45:00,
2013-10-13 16:47:00,76.9,64.7,30.10,ENE,76,1.0,3.0,66,0.00,,,0.01,Wunderground v.1.15,2013-10-13 20:47:00,
2013-10-13 16:49:00,76.9,65.1,30.10,East,80,1.0,3.0,67,0.00,,,0.01,Wunderground v.1.15,2013-10-13 20:49:00,
2013-10-13 16:50:00,76.9,65.1,30.10,East,80,0.0,3.0,67,0.00,,,0.01,Wunderground v.1.15,2013-10-13 20:50:00,
2013-10-13 16:52:00,76.9,64.2,30.11,East,80,2.0,3.0,65,0.00,,,0.01,Wunderground v.1.15,2013-10-13 20:52:00,
2013-10-13 16:54:00,76.8,64.1,30.10,East,82,0.0,3.0,65,0.00,,,0.01,Wunderground v.1.15,2013-10-13 20:54:00,
2013-10-13 16:55:00,76.8,64.1,30.10,East,82,0.0,3.0,65,0.00,,,0.01,Wunderground v.1.15,2013-10-13 20:55:00,
2013-10-13 16:56:00,76.7,64.5,30.10,East,82,1.0,3.0,66,0.00,,,0.01,Wunderground v.1.15,2013-10-13 20:56:00,
2013-10-13 16:57:00,76.7,64.5,30.10,East,82,1.0,3.0,66,0.00,,,0.01,Wunderground v.1.15,2013-10-13 20:57:00,
2013-10-13 16:58:00,76.7,64.5,30.10,East,82,1.0,3.0,66,0.00,,,0.01,Wunderground v.1.15,2013-10-13 20:58:00,
2013-10-13 17:00:00,76.6,65.2,30.11,East,82,0.0,1.0,68,0.00,,,0.01,Wunderground v.1.15,2013-10-13 21:00:00,
2013-10-13 17:01:00,76.6,65.2,30.10,East,85,1.0,2.0,68,0.00,,,0.01,Wunderground v.1.15,2013-10-13 21:01:00,
2013-10-13 17:03:00,76.4,65.1,30.10,East,84,2.0,2.0,68,0.00,,,0.01,Wunderground v.1.15,2013-10-13 21:03:00,
2013-10-13 17:04:00,76.4,65.1,30.10,East,85,2.0,2.0,68,0.00,,,0.01,Wunderground v.1.15,2013-10-13 21:04:00,
2013-10-13 17:05:00,76.3,64.5,30.10,East,85,0.0,2.0,67,0.00,,,0.01,Wunderground v.1.15,2013-10-13 21:05:00,
2013-10-13 17:06:00,76.2,64.9,30.11,East,84,0.0,2.0,68,0.00,,,0.01,Wunderground v.1.15,2013-10-13 21:06:00,
2013-10-13 17:09:00,76.0,64.7,30.11,East,99,0.0,2.0,68,0.00,,,0.01,Wunderground v.1.15,2013-10-13 21:09:00,
2013-10-13 17:10:00,76.0,64.7,30.10,East,99,0.0,1.0,68,0.00,,,0.01,Wunderground v.1.15,2013-10-13 21:10:00,
2013-10-13 17:11:00,75.9,64.6,30.10,East,99,1.0,1.0,68,0.00,,,0.01,Wunderground v.1.15,2013-10-13 21:11:00,
2013-10-13 17:13:00,75.9,64.6,30.11,East,99,0.0,2.0,68,0.00,,,0.01,Wunderground v.1.15,2013-10-13 21:13:00,
2013-10-13 17:14:00,75.8,65.7,30.10,East,98,2.0,2.0,71,0.00,,,0.01,Wunderground v.1.15,2013-10-13 21:14:00,
2013-10-13 17:16:00,75.8,64.9,30.11,East,98,1.0,2.0,69,0.00,,,0.01,Wunderground v.1.15,2013-10-13 21:16:00,
2013-10-13 17:18:00,75.8,65.3,30.10,East,99,1.0,2.0,70,0.00,,,0.01,Wunderground v.1.15,2013-10-13 21:18:00,
2013-10-13 17:19:00,75.7,65.2,30.10,East,99,2.0,2.0,70,0.00,,,0.01,Wunderground v.1.15,2013-10-13 21:19:00,
2013-10-13 17:21:00,75.7,64.4,30.10,East,99,0.0,1.0,68,0.00,,,0.01,Wunderground v.1.15,2013-10-13 21:21:00,
2013-10-13 17:23:00,75.7,64.8,30.10,ESE,103,0.0,3.0,69,0.00,,,0.01,Wunderground v.1.15,2013-10-13 21:23:00,
2013-10-13 17:24:00,75.7,65.2,30.10,ESE,104,0.0,3.0,70,0.00,,,0.01,Wunderground v.1.15,2013-10-13 21:24:00,
2013-10-13 17:25:00,75.6,64.7,30.10,ESE,103,0.0,3.0,69,0.00,,,0.01,Wunderground v.1.15,2013-10-13 21:25:00,
2013-10-13 17:26:00,75.6,64.7,30.10,ESE,104,1.0,3.0,69,0.00,,,0.01,Wunderground v.1.15,2013-10-13 21:26:00,
2013-10-13 17:28:00,75.5,65.0,30.11,ESE,103,2.0,3.0,70,0.00,,,0.01,Wunderground v.1.15,2013-10-13 21:28:00,
2013-10-13 17:29:00,75.5,64.2,30.10,ESE,103,0.0,3.0,68,0.00,,,0.01,Wunderground v.1.15,2013-10-13 21:29:00,
2013-10-13 17:31:00,75.5,65.4,30.10,ESE,103,1.0,2.0,71,0.00,,,0.01,Wunderground v.1.15,2013-10-13 21:31:00,
2013-10-13 17:32:00,75.4,64.9,30.10,ESE,103,0.0,2.0,70,0.00,,,0.01,Wunderground v.1.15,2013-10-13 21:32:00,
2013-10-13 17:34:00,75.4,65.3,30.10,ESE,103,2.0,2.0,71,0.00,,,0.01,Wunderground v.1.15,2013-10-13 21:34:00,
2013-10-13 17:35:00,75.4,65.7,30.10,ESE,103,0.0,2.0,72,0.00,,,0.01,Wunderground v.1.15,2013-10-13 21:35:00,
2013-10-13 17:36:00,75.4,65.7,30.10,ESE,103,1.0,2.0,72,0.00,,,0.01,Wunderground v.1.15,2013-10-13 21:36:00,
2013-10-13 17:37:00,75.3,64.8,30.10,ESE,103,0.0,2.0,70,0.00,,,0.01,Wunderground v.1.15,2013-10-13 21:37:00,
2013-10-13 17:40:00,75.2,65.1,30.10,ESE,103,1.0,1.0,71,0.00,,,0.01,Wunderground v.1.15,2013-10-13 21:40:00,
2013-10-13 17:41:00,75.2,65.1,30.10,ESE,103,0.0,1.0,71,0.00,,,0.01,Wunderground v.1.15,2013-10-13 21:41:00,
2013-10-13 17:42:00,75.2,65.1,30.10,ESE,103,0.0,1.0,71,0.00,,,0.01,Wunderground v.1.15,2013-10-13 21:42:00,
2013-10-13 17:45:00,75.0,65.0,30.10,ESE,103,0.0,2.0,71,0.00,,,0.01,Wunderground v.1.15,2013-10-13 21:45:00,
2013-10-13 17:46:00,75.0,65.0,30.10,ESE,103,1.0,2.0,71,0.00,,,0.01,Wunderground v.1.15,2013-10-13 21:46:00,
2013-10-13 17:47:00,74.9,65.3,30.10,ESE,103,0.0,2.0,72,0.00,,,0.01,Wunderground v.1.15,2013-10-13 21:47:00,
2013-10-13 17:48:00,74.9,65.3,30.10,ESE,103,1.0,2.0,72,0.00,,,0.01,Wunderground v.1.15,2013-10-13 21:48:00,
2013-10-13 17:51:00,74.7,65.1,30.10,ESE,103,0.0,0.0,72,0.00,,,0.01,Wunderground v.1.15,2013-10-13 21:51:00,
2013-10-13 17:52:00,74.7,65.5,30.10,ESE,103,0.0,1.0,73,0.00,,,0.01,Wunderground v.1.15,2013-10-13 21:52:00,
2013-10-13 17:53:00,74.6,65.0,30.10,ESE,103,0.0,1.0,72,0.00,,,0.01,Wunderground v.1.15,2013-10-13 21:53:00,
2013-10-13 17:56:00,74.5,65.7,30.10,ESE,103,0.0,1.0,74,0.00,,,0.01,Wunderground v.1.15,2013-10-13 21:56:00,
2013-10-13 17:57:00,74.4,65.6,30.10,ESE,103,0.0,1.0,74,0.00,,,0.01,Wunderground v.1.15,2013-10-13 21:57:00,
2013-10-13 17:58:00,74.3,65.1,30.10,ESE,103,1.0,1.0,73,0.00,,,0.01,Wunderground v.1.15,2013-10-13 21:58:00,
2013-10-13 17:59:00,74.3,65.1,30.10,ESE,103,0.0,1.0,73,0.00,,,0.01,Wunderground v.1.15,2013-10-13 21:59:00,
2013-10-13 18:01:00,74.1,64.9,30.10,ESE,103,0.0,1.0,73,0.00,,,0.01,Wunderground v.1.15,2013-10-13 22:01:00,
2013-10-13 18:02:00,74.1,64.9,30.10,ESE,103,0.0,1.0,73,0.00,,,0.01,Wunderground v.1.15,2013-10-13 22:02:00,
2013-10-13 18:04:00,74.0,64.8,30.10,ESE,103,0.0,2.0,73,0.00,,,0.01,Wunderground v.1.15,2013-10-13 22:04:00,
2013-10-13 18:06:00,73.8,64.6,30.10,ESE,103,0.0,2.0,73,0.00,,,0.01,Wunderground v.1.15,2013-10-13 22:06:00,
2013-10-13 18:07:00,73.8,65.0,30.10,ESE,103,1.0,2.0,74,0.00,,,0.01,Wunderground v.1.15,2013-10-13 22:07:00,
2013-10-13 18:09:00,73.6,64.4,30.10,ESE,103,0.0,2.0,73,0.00,,,0.01,Wunderground v.1.15,2013-10-13 22:09:00,
2013-10-13 18:10:00,73.5,64.7,30.10,ESE,103,1.0,1.0,74,0.00,,,0.01,Wunderground v.1.15,2013-10-13 22:10:00,
2013-10-13 18:11:00,73.5,64.7,30.10,ESE,103,0.0,1.0,74,0.00,,,0.01,Wunderground v.1.15,2013-10-13 22:11:00,
2013-10-13 18:12:00,73.4,64.6,30.10,ESE,103,0.0,1.0,74,0.00,,,0.01,Wunderground v.1.15,2013-10-13 22:12:00,
2013-10-13 18:14:00,73.4,65.4,30.10,ESE,103,0.0,1.0,76,0.00,,,0.01,Wunderground v.1.15,2013-10-13 22:14:00,
2013-10-13 18:15:00,73.3,64.9,30.10,ESE,103,0.0,1.0,75,0.00,,,0.01,Wunderground v.1.15,2013-10-13 22:15:00,
2013-10-13 18:17:00,73.3,65.3,30.10,ESE,103,0.0,1.0,76,0.00,,,0.01,Wunderground v.1.15,2013-10-13 22:17:00,
2013-10-13 18:18:00,73.3,65.3,30.10,ESE,103,0.0,1.0,76,0.00,,,0.01,Wunderground v.1.15,2013-10-13 22:18:00,
2013-10-13 18:19:00,73.2,65.2,30.10,ESE,103,1.0,1.0,76,0.00,,,0.01,Wunderground v.1.15,2013-10-13 22:19:00,
2013-10-13 18:20:00,73.2,65.2,30.10,ESE,103,2.0,2.0,76,0.00,,,0.01,Wunderground v.1.15,2013-10-13 22:20:00,
2013-10-13 18:21:00,73.1,64.7,30.10,ESE,103,0.0,2.0,75,0.00,,,0.01,Wunderground v.1.15,2013-10-13 22:21:00,
2013-10-13 18:22:00,73.0,64.6,30.10,ESE,103,0.0,2.0,75,0.00,,,0.01,Wunderground v.1.15,2013-10-13 22:22:00,
2013-10-13 18:23:00,73.0,65.0,30.10,ESE,103,0.0,2.0,76,0.00,,,0.01,Wunderground v.1.15,2013-10-13 22:23:00,
2013-10-13 18:24:00,73.0,65.0,30.10,ESE,103,1.0,2.0,76,0.00,,,0.01,Wunderground v.1.15,2013-10-13 22:24:00,
2013-10-13 18:26:00,72.9,64.9,30.10,ESE,103,0.0,2.0,76,0.00,,,0.01,Wunderground v.1.15,2013-10-13 22:26:00,
2013-10-13 18:27:00,72.8,64.8,30.10,ESE,103,0.0,2.0,76,0.00,,,0.01,Wunderground v.1.15,2013-10-13 22:27:00,
2013-10-13 18:28:00,72.8,64.8,30.11,ESE,103,0.0,2.0,76,0.00,,,0.01,Wunderground v.1.15,2013-10-13 22:28:00,
2013-10-13 18:29:00,72.7,65.1,30.11,ESE,103,0.0,2.0,77,0.00,,,0.01,Wunderground v.1.15,2013-10-13 22:29:00,
2013-10-13 18:31:00,72.6,65.0,30.10,ESE,103,1.0,2.0,77,0.00,,,0.01,Wunderground v.1.15,2013-10-13 22:31:00,
2013-10-13 18:32:00,72.5,64.9,30.11,ESE,103,0.0,2.0,77,0.00,,,0.01,Wunderground v.1.15,2013-10-13 22:32:00,
2013-10-13 18:33:00,72.5,64.9,30.11,ESE,103,0.0,2.0,77,0.00,,,0.01,Wunderground v.1.15,2013-10-13 22:33:00,
2013-10-13 18:35:00,72.4,64.8,30.11,ESE,103,0.0,2.0,77,0.00,,,0.01,Wunderground v.1.15,2013-10-13 22:35:00,
2013-10-13 18:36:00,72.3,64.7,30.11,ESE,103,0.0,2.0,77,0.00,,,0.01,Wunderground v.1.15,2013-10-13 22:36:00,
2013-10-13 18:37:00,72.3,64.7,30.11,ESE,103,0.0,2.0,77,0.00,,,0.01,Wunderground v.1.15,2013-10-13 22:37:00,
2013-10-13 18:38:00,72.2,65.0,30.11,ESE,103,1.0,2.0,78,0.00,,,0.01,Wunderground v.1.15,2013-10-13 22:38:00,
2013-10-13 18:40:00,72.1,64.5,30.11,ESE,103,0.0,2.0,77,0.00,,,0.01,Wunderground v.1.15,2013-10-13 22:40:00,
2013-10-13 18:41:00,72.1,64.9,30.11,ESE,103,0.0,1.0,78,0.00,,,0.01,Wunderground v.1.15,2013-10-13 22:41:00,
2013-10-13 18:42:00,72.0,64.8,30.11,ESE,103,0.0,1.0,78,0.00,,,0.01,Wunderground v.1.15,2013-10-13 22:42:00,
2013-10-13 18:43:00,71.9,65.0,30.11,ESE,103,0.0,1.0,79,0.00,,,0.01,Wunderground v.1.15,2013-10-13 22:43:00,
2013-10-13 18:45:00,71.8,64.9,30.11,ESE,103,1.0,1.0,79,0.00,,,0.01,Wunderground v.1.15,2013-10-13 22:45:00,
2013-10-13 18:46:00,71.7,64.5,30.11,ESE,103,0.0,1.0,78,0.00,,,0.01,Wunderground v.1.15,2013-10-13 22:46:00,
2013-10-13 18:47:00,71.6,64.7,30.11,ESE,103,0.0,1.0,79,0.00,,,0.01,Wunderground v.1.15,2013-10-13 22:47:00,
2013-10-13 18:48:00,71.5,64.6,30.11,ESE,103,0.0,1.0,79,0.00,,,0.01,Wunderground v.1.15,2013-10-13 22:48:00,
2013-10-13 18:50:00,71.5,64.6,30.11,ESE,103,0.0,0.0,79,0.00,,,0.01,Wunderground v.1.15,2013-10-13 22:50:00,
2013-10-13 18:51:00,71.4,64.5,30.11,ESE,103,0.0,1.0,79,0.00,,,0.01,Wunderground v.1.15,2013-10-13 22:51:00,
2013-10-13 18:52:00,71.3,64.8,30.11,ESE,103,0.0,1.0,80,0.00,,,0.01,Wunderground v.1.15,2013-10-13 22:52:00,
2013-10-13 18:53:00,71.2,64.7,30.11,ESE,103,0.0,1.0,80,0.00,,,0.01,Wunderground v.1.15,2013-10-13 22:53:00,
2013-10-13 18:54:00,71.2,64.7,30.11,ESE,103,0.0,1.0,80,0.00,,,0.01,Wunderground v.1.15,2013-10-13 22:54:00,
2013-10-13 18:55:00,71.1,64.6,30.11,ESE,103,0.0,1.0,80,0.00,,,0.01,Wunderground v.1.15,2013-10-13 22:55:00,
2013-10-13 18:56:00,71.1,64.6,30.11,ESE,103,0.0,1.0,80,0.00,,,0.01,Wunderground v.1.15,2013-10-13 22:56:00,
2013-10-13 18:58:00,70.9,64.4,30.11,ESE,103,0.0,1.0,80,0.00,,,0.01,Wunderground v.1.15,2013-10-13 22:58:00,
2013-10-13 18:59:00,70.9,64.4,30.11,ESE,103,0.0,1.0,80,0.00,,,0.01,Wunderground v.1.15,2013-10-13 22:59:00,
2013-10-13 19:00:00,70.7,64.6,30.11,ESE,103,0.0,0.0,81,0.00,,,0.01,Wunderground v.1.15,2013-10-13 23:00:00,
2013-10-13 19:01:00,70.7,64.6,30.11,ESE,103,0.0,0.0,81,0.00,,,0.01,Wunderground v.1.15,2013-10-13 23:01:00,
2013-10-13 19:03:00,70.6,64.5,30.11,ESE,103,0.0,0.0,81,0.00,,,0.01,Wunderground v.1.15,2013-10-13 23:03:00,
2013-10-13 19:04:00,70.4,64.3,30.11,ESE,103,0.0,0.0,81,0.00,,,0.01,Wunderground v.1.15,2013-10-13 23:04:00,
2013-10-13 19:05:00,70.3,64.2,30.11,ESE,103,0.0,1.0,81,0.00,,,0.01,Wunderground v.1.15,2013-10-13 23:05:00,
2013-10-13 19:06:00,70.3,64.2,30.11,ESE,103,1.0,1.0,81,0.00,,,0.01,Wunderground v.1.15,2013-10-13 23:06:00,
2013-10-13 19:08:00,70.1,64.0,30.10,ESE,103,0.0,1.0,81,0.00,,,0.01,Wunderground v.1.15,2013-10-13 23:08:00,
2013-10-13 19:09:00,70.1,64.0,30.10,ESE,103,0.0,1.0,81,0.00,,,0.01,Wunderground v.1.15,2013-10-13 23:09:00,
2013-10-13 19:10:00,70.0,63.9,30.10,ESE,103,0.0,1.0,81,0.00,,,0.01,Wunderground v.1.15,2013-10-13 23:10:00,
2013-10-13 19:11:00,69.9,64.2,30.11,ESE,103,0.0,0.0,82,0.00,,,0.01,Wunderground v.1.15,2013-10-13 23:11:00,
2013-10-13 19:13:00,69.8,64.1,30.11,ESE,103,0.0,0.0,82,0.00,,,0.01,Wunderground v.1.15,2013-10-13 23:13:00,
2013-10-13 19:14:00,69.7,64.0,30.11,ESE,103,0.0,1.0,82,0.00,,,0.01,Wunderground v.1.15,2013-10-13 23:14:00,
2013-10-13 19:15:00,69.7,64.0,30.11,ESE,103,0.0,1.0,82,0.00,,,0.01,Wunderground v.1.15,2013-10-13 23:15:00,
2013-10-13 19:16:00,69.5,63.8,30.11,ESE,103,0.0,1.0,82,0.00,,,0.01,Wunderground v.1.15,2013-10-13 23:16:00,
2013-10-13 19:19:00,69.4,64.0,30.11,ESE,103,0.0,1.0,83,0.00,,,0.01,Wunderground v.1.15,2013-10-13 23:19:00,
2013-10-13 19:20:00,69.3,63.9,30.11,ESE,103,0.0,1.0,83,0.00,,,0.01,Wunderground v.1.15,2013-10-13 23:20:00,
2013-10-13 19:21:00,69.3,63.9,30.11,ESE,103,0.0,0.0,83,0.00,,,0.01,Wunderground v.1.15,2013-10-13 23:21:00,
2013-10-13 19:22:00,69.2,64.2,30.11,ESE,103,0.0,0.0,84,0.00,,,0.01,Wunderground v.1.15,2013-10-13 23:22:00,
2013-10-13 19:24:00,69.1,64.1,30.11,ESE,103,0.0,0.0,84,0.00,,,0.01,Wunderground v.1.15,2013-10-13 23:24:00,
2013-10-13 19:25:00,69.0,64.0,30.11,ESE,103,0.0,0.0,84,0.00,,,0.01,Wunderground v.1.15,2013-10-13 23:25:00,
2013-10-13 19:26:00,68.9,63.9,30.11,ESE,103,0.0,0.0,84,0.00,,,0.01,Wunderground v.1.15,2013-10-13 23:26:00,
2013-10-13 19:27:00,68.8,63.8,30.11,ESE,103,0.0,0.0,84,0.00,,,0.01,Wunderground v.1.15,2013-10-13 23:27:00,
2013-10-13 19:29:00,68.7,64.0,30.11,ESE,103,0.0,1.0,85,0.00,,,0.01,Wunderground v.1.15,2013-10-13 23:29:00,
2013-10-13 19:30:00,68.6,63.9,30.11,ESE,103,0.0,0.0,85,0.00,,,0.01,Wunderground v.1.15,2013-10-13 23:30:00,
2013-10-13 19:31:00,68.5,63.8,30.11,ESE,103,0.0,0.0,85,0.00,,,0.01,Wunderground v.1.15,2013-10-13 23:31:00,
2013-10-13 19:32:00,68.5,63.8,30.11,ESE,103,0.0,1.0,85,0.00,,,0.01,Wunderground v.1.15,2013-10-13 23:32:00,
2013-10-13 19:34:00,68.3,63.6,30.11,ESE,103,0.0,1.0,85,0.00,,,0.01,Wunderground v.1.15,2013-10-13 23:34:00,
2013-10-13 19:35:00,68.2,63.5,30.11,ESE,103,0.0,1.0,85,0.00,,,0.01,Wunderground v.1.15,2013-10-13 23:35:00,
2013-10-13 19:36:00,68.2,63.5,30.11,ESE,103,0.0,1.0,85,0.00,,,0.01,Wunderground v.1.15,2013-10-13 23:36:00,
2013-10-13 19:37:00,68.1,63.8,30.11,ESE,103,0.0,1.0,86,0.00,,,0.01,Wunderground v.1.15,2013-10-13 23:37:00,
2013-10-13 19:38:00,68.1,63.8,30.11,ESE,103,0.0,1.0,86,0.00,,,0.01,Wunderground v.1.15,2013-10-13 23:38:00,
2013-10-13 19:40:00,67.9,63.6,30.11,ESE,103,0.0,0.0,86,0.00,,,0.01,Wunderground v.1.15,2013-10-13 23:40:00,
2013-10-13 19:41:00,67.9,63.6,30.11,ESE,103,0.0,0.0,86,0.00,,,0.01,Wunderground v.1.15,2013-10-13 23:41:00,
2013-10-13 19:43:00,67.7,63.4,30.11,ESE,103,0.0,0.0,86,0.00,,,0.01,Wunderground v.1.15,2013-10-13 23:43:00,
2013-10-13 19:46:00,67.6,63.3,30.12,ESE,103,0.0,0.0,86,0.00,,,0.01,Wunderground v.1.15,2013-10-13 23:46:00,
2013-10-13 19:48:00,67.4,63.4,30.12,ESE,103,0.0,0.0,87,0.00,,,0.01,Wunderground v.1.15,2013-10-13 23:48:00,
2013-10-13 19:49:00,67.4,63.4,30.12,ESE,103,0.0,0.0,87,0.00,,,0.01,Wunderground v.1.15,2013-10-13 23:49:00,
2013-10-13 19:51:00,67.3,63.3,30.11,ESE,103,0.0,1.0,87,0.00,,,0.01,Wunderground v.1.15,2013-10-13 23:51:00,
2013-10-13 19:53:00,67.2,63.2,30.12,ESE,103,0.0,1.0,87,0.00,,,0.01,Wunderground v.1.15,2013-10-13 23:53:00,
2013-10-13 19:54:00,67.1,63.1,30.12,ESE,103,0.0,1.0,87,0.00,,,0.01,Wunderground v.1.15,2013-10-13 23:54:00,
2013-10-13 19:56:00,67.1,63.1,30.12,ESE,103,0.0,1.0,87,0.00,,,0.01,Wunderground v.1.15,2013-10-13 23:56:00,
2013-10-13 19:57:00,67.0,63.0,30.12,ESE,103,0.0,1.0,87,0.00,,,0.01,Wunderground v.1.15,2013-10-13 23:57:00,
2013-10-13 19:58:00,67.0,63.0,30.12,ESE,103,1.0,1.0,87,0.00,,,0.01,Wunderground v.1.15,2013-10-13 23:58:00,
2013-10-13 19:59:00,67.0,63.0,30.12,ESE,103,0.0,2.0,87,0.00,,,0.01,Wunderground v.1.15,2013-10-13 23:59:00,
2013-10-13 20:01:00,66.9,62.9,30.12,ESE,103,1.0,1.0,87,0.00,,,0.01,Wunderground v.1.15,2013-10-14 00:01:00,
2013-10-13 20:02:00,66.9,62.9,30.12,ESE,103,0.0,1.0,87,0.00,,,0.01,Wunderground v.1.15,2013-10-14 00:02:00,
2013-10-13 20:03:00,66.9,62.9,30.12,ESE,103,1.0,2.0,87,0.00,,,0.01,Wunderground v.1.15,2013-10-14 00:03:00,
2013-10-13 20:05:00,66.9,62.9,30.12,ESE,103,1.0,2.0,87,0.00,,,0.01,Wunderground v.1.15,2013-10-14 00:05:00,
2013-10-13 20:06:00,67.0,63.3,30.12,ESE,103,1.0,2.0,88,0.00,,,0.01,Wunderground v.1.15,2013-10-14 00:06:00,
2013-10-13 20:07:00,67.0,63.3,30.12,ESE,103,1.0,2.0,88,0.00,,,0.01,Wunderground v.1.15,2013-10-14 00:07:00,
2013-10-13 20:08:00,67.0,63.3,30.12,ESE,103,1.0,2.0,88,0.00,,,0.01,Wunderground v.1.15,2013-10-14 00:08:00,
2013-10-13 20:10:00,67.0,63.3,30.12,ESE,103,0.0,1.0,88,0.00,,,0.01,Wunderground v.1.15,2013-10-14 00:10:00,
2013-10-13 20:11:00,67.0,63.3,30.12,ESE,103,1.0,1.0,88,0.00,,,0.01,Wunderground v.1.15,2013-10-14 00:11:00,
2013-10-13 20:12:00,67.0,63.3,30.12,ESE,103,1.0,1.0,88,0.00,,,0.01,Wunderground v.1.15,2013-10-14 00:12:00,
2013-10-13 20:13:00,66.9,63.2,30.12,ESE,103,2.0,2.0,88,0.00,,,0.01,Wunderground v.1.15,2013-10-14 00:13:00,
2013-10-13 20:14:00,66.9,63.2,30.12,ESE,103,2.0,2.0,88,0.00,,,0.01,Wunderground v.1.15,2013-10-14 00:14:00,
2013-10-13 20:16:00,66.9,63.2,30.12,ESE,103,1.0,3.0,88,0.00,,,0.01,Wunderground v.1.15,2013-10-14 00:16:00,
2013-10-13 20:17:00,66.8,63.1,30.12,ESE,103,1.0,3.0,88,0.00,,,0.01,Wunderground v.1.15,2013-10-14 00:17:00,
2013-10-13 20:18:00,66.8,63.1,30.12,ESE,103,1.0,3.0,88,0.00,,,0.01,Wunderground v.1.15,2013-10-14 00:18:00,
2013-10-13 20:19:00,66.8,63.1,30.12,ESE,103,2.0,3.0,88,0.00,,,0.01,Wunderground v.1.15,2013-10-14 00:19:00,
2013-10-13 20:21:00,66.8,63.1,30.12,ESE,103,1.0,2.0,88,0.00,,,0.01,Wunderground v.1.15,2013-10-14 00:21:00,
2013-10-13 20:23:00,66.7,63.0,30.13,ESE,103,0.0,2.0,88,0.00,,,0.01,Wunderground v.1.15,2013-10-14 00:23:00,
2013-10-13 20:24:00,66.7,63.0,30.13,ESE,103,1.0,2.0,88,0.00,,,0.01,Wunderground v.1.15,2013-10-14 00:24:00,
2013-10-13 20:26:00,66.6,63.3,30.13,ESE,103,2.0,2.0,89,0.00,,,0.01,Wunderground v.1.15,2013-10-14 00:26:00,
2013-10-13 20:27:00,66.6,63.3,30.13,ESE,103,1.0,2.0,89,0.00,,,0.01,Wunderground v.1.15,2013-10-14 00:27:00,
2013-10-13 20:28:00,66.5,63.2,30.13,ESE,103,1.0,2.0,89,0.00,,,0.01,Wunderground v.1.15,2013-10-14 00:28:00,
2013-10-13 20:29:00,66.5,63.2,30.13,ESE,103,0.0,3.0,89,0.00,,,0.01,Wunderground v.1.15,2013-10-14 00:29:00,
2013-10-13 20:31:00,66.5,63.2,30.13,ESE,103,0.0,2.0,89,0.00,,,0.01,Wunderground v.1.15,2013-10-14 00:31:00,
2013-10-13 20:32:00,66.4,63.1,30.13,ESE,103,0.0,2.0,89,0.00,,,0.01,Wunderground v.1.15,2013-10-14 00:32:00,
2013-10-13 20:33:00,66.4,63.1,30.13,ESE,103,2.0,3.0,89,0.00,,,0.01,Wunderground v.1.15,2013-10-14 00:33:00,
2013-10-13 20:35:00,66.3,63.0,30.13,ESE,103,1.0,3.0,89,0.00,,,0.01,Wunderground v.1.15,2013-10-14 00:35:00,
2013-10-13 20:37:00,66.3,63.0,30.13,ESE,103,0.0,3.0,89,0.00,,,0.01,Wunderground v.1.15,2013-10-14 00:37:00,
2013-10-13 20:38:00,66.2,62.9,30.13,ESE,103,1.0,3.0,89,0.00,,,0.01,Wunderground v.1.15,2013-10-14 00:38:00,
2013-10-13 20:40:00,66.1,63.1,30.13,ESE,103,0.0,1.0,90,0.00,,,0.01,Wunderground v.1.15,2013-10-14 00:40:00,
2013-10-13 20:41:00,66.1,63.1,30.13,ESE,103,0.0,1.0,90,0.00,,,0.01,Wunderground v.1.15,2013-10-14 00:41:00,
2013-10-13 20:42:00,66.1,63.1,30.13,ESE,103,0.0,1.0,90,0.00,,,0.01,Wunderground v.1.15,2013-10-14 00:42:00,
2013-10-13 20:43:00,66.0,63.0,30.13,ESE,103,0.0,1.0,90,0.00,,,0.01,Wunderground v.1.15,2013-10-14 00:43:00,
2013-10-13 20:45:00,65.9,62.9,30.13,ESE,103,0.0,1.0,90,0.00,,,0.01,Wunderground v.1.15,2013-10-14 00:45:00,
2013-10-13 20:46:00,65.9,62.9,30.13,ESE,103,0.0,1.0,90,0.00,,,0.01,Wunderground v.1.15,2013-10-14 00:46:00,
2013-10-13 20:47:00,65.8,62.8,30.13,ESE,103,0.0,1.0,90,0.00,,,0.01,Wunderground v.1.15,2013-10-14 00:47:00,
2013-10-13 20:48:00,65.8,62.8,30.13,ESE,103,1.0,1.0,90,0.00,,,0.01,Wunderground v.1.15,2013-10-14 00:48:00,
2013-10-13 20:49:00,65.8,62.8,30.13,ESE,103,1.0,1.0,90,0.00,,,0.01,Wunderground v.1.15,2013-10-14 00:49:00,
2013-10-13 20:51:00,65.7,63.0,30.13,ESE,103,1.0,2.0,91,0.00,,,0.01,Wunderground v.1.15,2013-10-14 00:51:00,
2013-10-13 20:52:00,65.7,63.0,30.13,ESE,103,2.0,2.0,91,0.00,,,0.01,Wunderground v.1.15,2013-10-14 00:52:00,
2013-10-13 20:54:00,65.7,63.0,30.13,ESE,103,0.0,3.0,91,0.00,,,0.01,Wunderground v.1.15,2013-10-14 00:54:00,
2013-10-13 20:57:00,65.7,63.0,30.13,ESE,103,1.0,3.0,91,0.00,,,0.01,Wunderground v.1.15,2013-10-14 00:57:00,
2013-10-13 20:59:00,65.6,62.9,30.13,ESE,103,0.0,3.0,91,0.00,,,0.01,Wunderground v.1.15,2013-10-14 00:59:00,
2013-10-13 21:02:00,65.6,62.9,30.13,ESE,103,1.0,3.0,91,0.00,,,0.01,Wunderground v.1.15,2013-10-14 01:02:00,
2013-10-13 21:04:00,65.6,62.9,30.13,ESE,103,1.0,3.0,91,0.00,,,0.01,Wunderground v.1.15,2013-10-14 01:04:00,
2013-10-13 21:07:00,65.6,62.9,30.13,ESE,103,1.0,3.0,91,0.00,,,0.01,Wunderground v.1.15,2013-10-14 01:07:00,
2013-10-13 21:08:00,65.6,62.9,30.13,ESE,103,0.0,3.0,91,0.00,,,0.01,Wunderground v.1.15,2013-10-14 01:08:00,
2013-10-13 21:09:00,65.6,62.9,30.13,ESE,103,1.0,3.0,91,0.00,,,0.01,Wunderground v.1.15,2013-10-14 01:09:00,
2013-10-13 21:10:00,65.6,62.9,30.13,ESE,103,2.0,2.0,91,0.00,,,0.01,Wunderground v.1.15,2013-10-14 01:10:00,
2013-10-13 21:13:00,65.6,62.9,30.13,ESE,103,1.0,2.0,91,0.00,,,0.01,Wunderground v.1.15,2013-10-14 01:13:00,
2013-10-13 21:14:00,65.5,62.8,30.13,ESE,103,1.0,3.0,91,0.00,,,0.01,Wunderground v.1.15,2013-10-14 01:14:00,
2013-10-13 21:16:00,65.5,62.8,30.13,ESE,103,0.0,3.0,91,0.00,,,0.01,Wunderground v.1.15,2013-10-14 01:16:00,
2013-10-13 21:18:00,65.5,62.8,30.13,ESE,103,2.0,3.0,91,0.00,,,0.01,Wunderground v.1.15,2013-10-14 01:18:00,
2013-10-13 21:19:00,65.4,62.7,30.13,ESE,103,1.0,3.0,91,0.00,,,0.01,Wunderground v.1.15,2013-10-14 01:19:00,
2013-10-13 21:20:00,65.4,62.7,30.13,ESE,103,0.0,2.0,91,0.00,,,0.01,Wunderground v.1.15,2013-10-14 01:20:00,
2013-10-13 21:21:00,65.4,62.7,30.13,ESE,103,0.0,2.0,91,0.00,,,0.01,Wunderground v.1.15,2013-10-14 01:21:00,
2013-10-13 21:23:00,65.4,62.7,30.14,ESE,103,0.0,2.0,91,0.00,,,0.01,Wunderground v.1.15,2013-10-14 01:23:00,
2013-10-13 21:24:00,65.4,62.7,30.13,ESE,103,1.0,2.0,91,0.00,,,0.01,Wunderground v.1.15,2013-10-14 01:24:00,
2013-10-13 21:25:00,65.4,62.7,30.14,ESE,103,0.0,3.0,91,0.00,,,0.01,Wunderground v.1.15,2013-10-14 01:25:00,
2013-10-13 21:28:00,65.4,62.7,30.14,ESE,102,0.0,4.0,91,0.00,,,0.01,Wunderground v.1.15,2013-10-14 01:28:00,
2013-10-13 21:29:00,65.4,62.7,30.14,East,98,1.0,4.0,91,0.00,,,0.01,Wunderground v.1.15,2013-10-14 01:29:00,
2013-10-13 21:30:00,65.4,62.7,30.14,East,98,1.0,2.0,91,0.00,,,0.01,Wunderground v.1.15,2013-10-14 01:30:00,
2013-10-13 21:33:00,65.4,62.7,30.14,East,98,0.0,3.0,91,0.00,,,0.01,Wunderground v.1.15,2013-10-14 01:33:00,
2013-10-13 21:34:00,65.4,62.7,30.14,East,98,3.0,3.0,91,0.00,,,0.01,Wunderground v.1.15,2013-10-14 01:34:00,
2013-10-13 21:35:00,65.4,62.7,30.14,East,98,2.0,3.0,91,0.00,,,0.01,Wunderground v.1.15,2013-10-14 01:35:00,
2013-10-13 21:38:00,65.4,62.7,30.14,East,98,2.0,4.0,91,0.00,,,0.01,Wunderground v.1.15,2013-10-14 01:38:00,
2013-10-13 21:39:00,65.4,62.7,30.14,East,98,1.0,4.0,91,0.00,,,0.01,Wunderground v.1.15,2013-10-14 01:39:00,
2013-10-13 21:40:00,65.4,62.7,30.14,East,98,1.0,2.0,91,0.00,,,0.01,Wunderground v.1.15,2013-10-14 01:40:00,
2013-10-13 21:43:00,65.4,62.7,30.14,East,98,3.0,3.0,91,0.00,,,0.01,Wunderground v.1.15,2013-10-14 01:43:00,
2013-10-13 21:44:00,65.4,62.7,30.15,East,98,1.0,3.0,91,0.00,,,0.01,Wunderground v.1.15,2013-10-14 01:44:00,
2013-10-13 21:45:00,65.4,62.7,30.15,East,98,1.0,3.0,91,0.00,,,0.01,Wunderground v.1.15,2013-10-14 01:45:00,
2013-10-13 21:47:00,65.4,62.7,30.15,East,98,1.0,3.0,91,0.00,,,0.01,Wunderground v.1.15,2013-10-14 01:47:00,
2013-10-13 21:48:00,65.4,62.7,30.15,East,98,0.0,4.0,91,0.00,,,0.01,Wunderground v.1.15,2013-10-14 01:48:00,
2013-10-13 21:49:00,65.4,62.7,30.15,East,98,2.0,4.0,91,0.00,,,0.01,Wunderground v.1.15,2013-10-14 01:49:00,
2013-10-13 21:50:00,65.4,62.7,30.15,East,98,0.0,1.0,91,0.00,,,0.01,Wunderground v.1.15,2013-10-14 01:50:00,
2013-10-13 21:53:00,65.4,62.7,30.15,East,98,0.0,2.0,91,0.00,,,0.01,Wunderground v.1.15,2013-10-14 01:53:00,
2013-10-13 21:54:00,65.4,62.7,30.15,East,98,0.0,2.0,91,0.00,,,0.01,Wunderground v.1.15,2013-10-14 01:54:00,
2013-10-13 21:55:00,65.4,62.7,30.15,East,98,0.0,2.0,91,0.00,,,0.01,Wunderground v.1.15,2013-10-14 01:55:00,
2013-10-13 21:56:00,65.4,62.7,30.15,East,98,0.0,2.0,91,0.00,,,0.01,Wunderground v.1.15,2013-10-14 01:56:00,
2013-10-13 21:58:00,65.4,62.7,30.15,East,89,2.0,4.0,91,0.00,,,0.01,Wunderground v.1.15,2013-10-14 01:58:00,
2013-10-13 21:59:00,65.4,62.7,30.15,East,88,1.0,4.0,91,0.00,,,0.01,Wunderground v.1.15,2013-10-14 01:59:00,
2013-10-13 22:00:00,65.4,62.7,30.15,East,89,0.0,0.0,91,0.00,,,0.01,Wunderground v.1.15,2013-10-14 02:00:00,
2013-10-13 22:01:00,65.3,62.6,30.15,East,88,0.0,0.0,91,0.00,,,0.01,Wunderground v.1.15,2013-10-14 02:01:00,
2013-10-13 22:03:00,65.3,62.6,30.15,East,89,0.0,3.0,91,0.00,,,0.01,Wunderground v.1.15,2013-10-14 02:03:00,
2013-10-13 22:04:00,65.3,62.6,30.15,East,89,3.0,3.0,91,0.00,,,0.01,Wunderground v.1.15,2013-10-14 02:04:00,
2013-10-13 22:05:00,65.3,62.6,30.15,East,88,0.0,3.0,91,0.00,,,0.01,Wunderground v.1.15,2013-10-14 02:05:00,
2013-10-13 22:06:00,65.3,62.6,30.15,East,89,2.0,3.0,91,0.00,,,0.01,Wunderground v.1.15,2013-10-14 02:06:00,
2013-10-13 22:07:00,65.3,62.6,30.15,East,89,1.0,3.0,91,0.00,,,0.01,Wunderground v.1.15,2013-10-14 02:07:00,
2013-10-13 22:09:00,65.3,62.6,30.15,East,88,0.0,3.0,91,0.00,,,0.01,Wunderground v.1.15,2013-10-14 02:09:00,
2013-10-13 22:10:00,65.4,62.7,30.15,East,89,1.0,2.0,91,0.00,,,0.01,Wunderground v.1.15,2013-10-14 02:10:00,
2013-10-13 22:11:00,65.3,62.6,30.15,East,89,0.0,2.0,91,0.00,,,0.01,Wunderground v.1.15,2013-10-14 02:11:00,
2013-10-13 22:12:00,65.4,62.7,30.15,East,89,0.0,2.0,91,0.00,,,0.01,Wunderground v.1.15,2013-10-14 02:12:00,
2013-10-13 22:14:00,65.4,62.7,30.15,East,89,2.0,2.0,91,0.00,,,0.01,Wunderground v.1.15,2013-10-14 02:14:00,
2013-10-13 22:15:00,65.4,62.7,30.15,East,89,0.0,2.0,91,0.00,,,0.01,Wunderground v.1.15,2013-10-14 02:15:00,
2013-10-13 22:16:00,65.4,62.7,30.15,East,89,3.0,3.0,91,0.00,,,0.01,Wunderground v.1.15,2013-10-14 02:16:00,
2013-10-13 22:17:00,65.4,62.7,30.15,East,88,0.0,3.0,91,0.00,,,0.01,Wunderground v.1.15,2013-10-14 02:17:00,
2013-10-13 22:19:00,65.4,62.7,30.15,East,89,2.0,3.0,91,0.00,,,0.01,Wunderground v.1.15,2013-10-14 02:19:00,
2013-10-13 22:20:00,65.4,62.7,30.15,East,88,1.0,2.0,91,0.00,,,0.01,Wunderground v.1.15,2013-10-14 02:20:00,
2013-10-13 22:21:00,65.4,62.7,30.15,East,88,0.0,2.0,91,0.00,,,0.01,Wunderground v.1.15,2013-10-14 02:21:00,
2013-10-13 22:23:00,65.4,62.7,30.15,East,88,0.0,2.0,91,0.00,,,0.01,Wunderground v.1.15,2013-10-14 02:23:00,
2013-10-13 22:24:00,65.4,62.7,30.14,East,89,1.0,2.0,91,0.00,,,0.01,Wunderground v.1.15,2013-10-14 02:24:00,
2013-10-13 22:25:00,65.4,62.7,30.15,East,87,2.0,5.0,91,0.00,,,0.01,Wunderground v.1.15,2013-10-14 02:25:00,
2013-10-13 22:26:00,65.4,62.7,30.15,East,87,1.0,5.0,91,0.00,,,0.01,Wunderground v.1.15,2013-10-14 02:26:00,
2013-10-13 22:27:00,65.4,62.7,30.15,East,88,0.0,5.0,91,0.00,,,0.01,Wunderground v.1.15,2013-10-14 02:27:00,
2013-10-13 22:28:00,65.3,62.6,30.14,East,87,0.0,5.0,91,0.00,,,0.01,Wunderground v.1.15,2013-10-14 02:28:00,
2013-10-13 22:30:00,65.3,62.6,30.14,East,87,0.0,5.0,91,0.00,,,0.01,Wunderground v.1.15,2013-10-14 02:30:00,
2013-10-13 22:31:00,65.2,62.5,30.15,East,88,0.0,3.0,91,0.00,,,0.01,Wunderground v.1.15,2013-10-14 02:31:00,
2013-10-13 22:32:00,65.2,62.5,30.15,East,87,0.0,3.0,91,0.00,,,0.01,Wunderground v.1.15,2013-10-14 02:32:00,
2013-10-13 22:34:00,65.2,62.5,30.15,East,88,0.0,3.0,91,0.00,,,0.01,Wunderground v.1.15,2013-10-14 02:34:00,
2013-10-13 22:35:00,65.2,62.5,30.14,East,88,0.0,3.0,91,0.00,,,0.01,Wunderground v.1.15,2013-10-14 02:35:00,
2013-10-13 22:37:00,65.1,62.4,30.15,East,88,0.0,3.0,91,0.00,,,0.01,Wunderground v.1.15,2013-10-14 02:37:00,
2013-10-13 22:39:00,65.0,62.3,30.14,East,88,0.0,3.0,91,0.00,,,0.01,Wunderground v.1.15,2013-10-14 02:39:00,
2013-10-13 22:40:00,65.0,62.3,30.14,East,88,1.0,1.0,91,0.00,,,0.01,Wunderground v.1.15,2013-10-14 02:40:00,
2013-10-13 22:42:00,65.0,62.3,30.14,East,87,0.0,1.0,91,0.00,,,0.01,Wunderground v.1.15,2013-10-14 02:42:00,
2013-10-13 22:43:00,64.9,62.2,30.14,East,88,0.0,1.0,91,0.00,,,0.01,Wunderground v.1.15,2013-10-14 02:43:00,
2013-10-13 22:45:00,64.9,62.2,30.14,East,87,0.0,1.0,91,0.00,,,0.01,Wunderground v.1.15,2013-10-14 02:45:00,
2013-10-13 22:47:00,64.9,62.2,30.14,East,88,0.0,1.0,91,0.00,,,0.01,Wunderground v.1.15,2013-10-14 02:47:00,
2013-10-13 22:48:00,64.8,62.1,30.14,East,87,0.0,1.0,91,0.00,,,0.01,Wunderground v.1.15,2013-10-14 02:48:00,
2013-10-13 22:50:00,64.7,62.0,30.14,East,87,0.0,0.0,91,0.00,,,0.01,Wunderground v.1.15,2013-10-14 02:50:00,
2013-10-13 22:51:00,64.7,62.0,30.14,East,88,0.0,0.0,91,0.00,,,0.01,Wunderground v.1.15,2013-10-14 02:51:00,
2013-10-13 22:52:00,64.7,62.0,30.14,East,87,0.0,0.0,91,0.00,,,0.01,Wunderground v.1.15,2013-10-14 02:52:00,
2013-10-13 22:53:00,64.7,62.3,30.14,East,87,0.0,0.0,92,0.00,,,0.01,Wunderground v.1.15,2013-10-14 02:53:00,
2013-10-13 22:54:00,64.6,62.2,30.14,East,88,1.0,1.0,92,0.00,,,0.01,Wunderground v.1.15,2013-10-14 02:54:00,
2013-10-13 22:55:00,64.5,62.1,30.14,East,88,0.0,1.0,92,0.00,,,0.01,Wunderground v.1.15,2013-10-14 02:55:00,
2013-10-13 22:56:00,64.5,62.1,30.14,East,88,0.0,1.0,92,0.00,,,0.01,Wunderground v.1.15,2013-10-14 02:56:00,
2013-10-13 22:57:00,64.5,62.1,30.14,East,88,0.0,1.0,92,0.00,,,0.01,Wunderground v.1.15,2013-10-14 02:57:00,
2013-10-13 22:59:00,64.4,62.0,30.14,East,87,0.0,1.0,92,0.00,,,0.01,Wunderground v.1.15,2013-10-14 02:59:00,
2013-10-13 23:00:00,64.4,62.0,30.14,East,87,0.0,0.0,92,0.00,,,0.01,Wunderground v.1.15,2013-10-14 03:00:00,
2013-10-13 23:01:00,64.3,61.9,30.14,East,87,0.0,0.0,92,0.00,,,0.01,Wunderground v.1.15,2013-10-14 03:01:00,
2013-10-13 23:02:00,64.3,61.9,30.14,East,88,0.0,0.0,92,0.00,,,0.01,Wunderground v.1.15,2013-10-14 03:02:00,
2013-10-13 23:04:00,64.3,61.9,30.14,East,87,0.0,0.0,92,0.00,,,0.01,Wunderground v.1.15,2013-10-14 03:04:00,
2013-10-13 23:05:00,64.2,61.8,30.14,East,87,0.0,0.0,92,0.00,,,0.01,Wunderground v.1.15,2013-10-14 03:05:00,
2013-10-13 23:06:00,64.1,61.7,30.14,East,88,0.0,0.0,92,0.00,,,0.01,Wunderground v.1.15,2013-10-14 03:06:00,
2013-10-13 23:08:00,64.1,61.7,30.15,East,87,0.0,0.0,92,0.00,,,0.01,Wunderground v.1.15,2013-10-14 03:08:00,
2013-10-13 23:09:00,64.0,61.6,30.14,East,88,0.0,0.0,92,0.00,,,0.01,Wunderground v.1.15,2013-10-14 03:09:00,
2013-10-13 23:10:00,63.9,61.5,30.14,East,87,0.0,0.0,92,0.00,,,0.01,Wunderground v.1.15,2013-10-14 03:10:00,
2013-10-13 23:11:00,63.9,61.5,30.15,East,87,0.0,0.0,92,0.00,,,0.01,Wunderground v.1.15,2013-10-14 03:11:00,
2013-10-13 23:13:00,63.8,61.7,30.15,East,88,0.0,0.0,93,0.00,,,0.01,Wunderground v.1.15,2013-10-14 03:13:00,
2013-10-13 23:14:00,63.8,61.7,30.15,East,88,0.0,0.0,93,0.00,,,0.01,Wunderground v.1.15,2013-10-14 03:14:00,
2013-10-13 23:15:00,63.8,61.7,30.14,East,88,0.0,0.0,93,0.00,,,0.01,Wunderground v.1.15,2013-10-14 03:15:00,
2013-10-13 23:17:00,63.8,61.7,30.15,East,88,0.0,0.0,93,0.00,,,0.01,Wunderground v.1.15,2013-10-14 03:17:00,
2013-10-13 23:18:00,63.7,61.6,30.15,East,87,0.0,0.0,93,0.00,,,0.01,Wunderground v.1.15,2013-10-14 03:18:00,
2013-10-13 23:19:00,63.7,61.6,30.15,East,88,0.0,0.0,93,0.00,,,0.01,Wunderground v.1.15,2013-10-14 03:19:00,
2013-10-13 23:20:00,63.7,61.6,30.15,East,87,0.0,0.0,93,0.00,,,0.01,Wunderground v.1.15,2013-10-14 03:20:00,
2013-10-13 23:22:00,63.6,61.5,30.15,East,87,0.0,0.0,93,0.00,,,0.01,Wunderground v.1.15,2013-10-14 03:22:00,
2013-10-13 23:24:00,63.6,61.5,30.15,East,88,0.0,0.0,93,0.00,,,0.01,Wunderground v.1.15,2013-10-14 03:24:00,
2013-10-13 23:25:00,63.6,61.5,30.15,East,88,0.0,0.0,93,0.00,,,0.01,Wunderground v.1.15,2013-10-14 03:25:00,
2013-10-13 23:27:00,63.5,61.4,30.15,East,88,0.0,0.0,93,0.00,,,0.01,Wunderground v.1.15,2013-10-14 03:27:00,
2013-10-13 23:29:00,63.5,61.4,30.15,East,88,0.0,0.0,93,0.00,,,0.01,Wunderground v.1.15,2013-10-14 03:29:00,
2013-10-13 23:30:00,63.5,61.7,30.15,East,87,0.0,0.0,94,0.00,,,0.01,Wunderground v.1.15,2013-10-14 03:30:00,
2013-10-13 23:32:00,63.5,61.7,30.15,East,88,0.0,1.0,94,0.00,,,0.01,Wunderground v.1.15,2013-10-14 03:32:00,
2013-10-13 23:33:00,63.5,61.7,30.15,East,87,1.0,1.0,94,0.00,,,0.01,Wunderground v.1.15,2013-10-14 03:33:00,
2013-10-13 23:34:00,63.5,61.7,30.15,East,88,0.0,1.0,94,0.00,,,0.01,Wunderground v.1.15,2013-10-14 03:34:00,
2013-10-13 23:35:00,63.5,61.7,30.15,East,87,0.0,1.0,94,0.00,,,0.01,Wunderground v.1.15,2013-10-14 03:35:00,
2013-10-13 23:36:00,63.5,61.7,30.15,East,88,0.0,1.0,94,0.00,,,0.01,Wunderground v.1.15,2013-10-14 03:36:00,
2013-10-13 23:37:00,63.5,61.7,30.15,East,88,0.0,1.0,94,0.00,,,0.01,Wunderground v.1.15,2013-10-14 03:37:00,
2013-10-13 23:39:00,63.4,61.6,30.14,East,87,0.0,1.0,94,0.00,,,0.01,Wunderground v.1.15,2013-10-14 03:39:00,
2013-10-13 23:40:00,63.4,61.6,30.14,East,87,0.0,0.0,94,0.00,,,0.01,Wunderground v.1.15,2013-10-14 03:40:00,
2013-10-13 23:41:00,63.4,61.6,30.15,East,88,0.0,0.0,94,0.00,,,0.01,Wunderground v.1.15,2013-10-14 03:41:00,
2013-10-13 23:42:00,63.4,61.6,30.15,East,87,0.0,0.0,94,0.00,,,0.01,Wunderground v.1.15,2013-10-14 03:42:00,
2013-10-13 23:43:00,63.4,61.6,30.15,East,87,0.0,1.0,94,0.00,,,0.01,Wunderground v.1.15,2013-10-14 03:43:00,
2013-10-13 23:44:00,63.4,61.6,30.14,East,87,0.0,1.0,94,0.00,,,0.01,Wunderground v.1.15,2013-10-14 03:44:00,
2013-10-13 23:45:00,63.4,61.6,30.15,East,88,0.0,1.0,94,0.00,,,0.01,Wunderground v.1.15,2013-10-14 03:45:00,
2013-10-13 23:47:00,63.3,61.5,30.15,East,88,0.0,1.0,94,0.00,,,0.01,Wunderground v.1.15,2013-10-14 03:47:00,
2013-10-13 23:48:00,63.3,61.5,30.15,East,88,0.0,1.0,94,0.00,,,0.01,Wunderground v.1.15,2013-10-14 03:48:00,
2013-10-13 23:49:00,63.3,61.5,30.15,East,88,0.0,1.0,94,0.00,,,0.01,Wunderground v.1.15,2013-10-14 03:49:00,
2013-10-13 23:50:00,63.2,61.4,30.15,East,88,0.0,0.0,94,0.00,,,0.01,Wunderground v.1.15,2013-10-14 03:50:00,
2013-10-13 23:51:00,63.2,61.4,30.15,East,88,0.0,0.0,94,0.00,,,0.01,Wunderground v.1.15,2013-10-14 03:51:00,
2013-10-13 23:52:00,63.2,61.4,30.15,East,88,0.0,0.0,94,0.00,,,0.01,Wunderground v.1.15,2013-10-14 03:52:00,
2013-10-13 23:53:00,63.2,61.4,30.15,East,88,0.0,0.0,94,0.00,,,0.01,Wunderground v.1.15,2013-10-14 03:53:00,
2013-10-13 23:54:00,63.1,61.3,30.15,East,87,0.0,0.0,94,0.00,,,0.01,Wunderground v.1.15,2013-10-14 03:54:00,
2013-10-13 23:55:00,63.1,61.3,30.15,East,87,0.0,0.0,94,0.00,,,0.01,Wunderground v.1.15,2013-10-14 03:55:00,
2013-10-13 23:56:00,63.1,61.3,30.15,East,87,0.0,0.0,94,0.00,,,0.01,Wunderground v.1.15,2013-10-14 03:56:00,
2013-10-13 23:57:00,63.1,61.3,30.15,East,88,0.0,0.0,94,0.00,,,0.01,Wunderground v.1.15,2013-10-14 03:57:00,
2013-10-13 23:58:00,63.1,61.3,30.15,East,88,0.0,0.0,94,0.00,,,0.01,Wunderground v.1.15,2013-10-14 03:58:00,
2013-10-13 23:59:00,63.1,61.3,30.15,East,88,0.0,0.0,94,0.00,,,0.01,Wunderground v.1.15,2013-10-14 03:59:00,